LiveATC.Net - Listen to live air traffic control over the Internet!
Airport/ARTCC Code
Frequency Search
(e.g., 124.400, 128.75)
Site-wide search
 


Browse Feeds
Top 50 Feeds
HF Oceanic Feeds
Coverage Map
Bad Weather Areas

LiveATC FAQ
Offer LiveATC feed
Contact LiveATC.net
Press Inquiries

LiveATC on iPhone
LiveATC on Android

LiveATC Mobile
(Mobile browser)

ATC Audio Archives
Interesting Recordings

LiveATC Forums

Home Page
About LiveATC.net
Make a Donation
Terms of Use
Privacy Policy

Canadian Air Freqs

AIRMETs/SIGMETs

FAA Airport Status
NAS Status
Arrival Demand


Server Software By:
Icecast.org
Liquidsoap

Select an area of interest:
U.S. Feeds: Class B Airports | Class C Airports | Class D/Other Airports | ARTCC (Centers)
International Feeds: Canada | Europe | Oceania | Asia | South America | North/Central America | Africa
Misc Feeds: HF Feeds
Search by ICAO/IATA airport code:   (e.g., kbos, kjfk, lax, eham, etc.)


Currently Available Live Feeds: 3109
Status Updated: Mon Jan 24 2022 07:11:04 UTC


NOTICE

Unauthorized use prohibited. See LiveATC.net Terms of Service

Europe Airport Feeds

 

EFJY Tower (Archives)
Jyvaskyla, Finland

Feed Status: UP
Listen in your browser - HTML5 player(in browser, HTML5)
Click here to listen with your own player(launches your MP3 player)

EFJY 240650Z AUTO 20010KT 170V250 9999 OVC003 01/00 Q1011

EFJY Flight Activity (Flightaware)

Listeners: 1 out of 1253 total

Jyvaskyla Tower: 118.000
Jyvaskyla Tower: 119.700

EFKU Tower/Approach
Siilinjarvi, Finland

Feed Status: DOWN
Offline since: 2022-01-20 11:58:21 UTC

EFKU 240650Z 20010KT 170V230 5000 -SN OVC005 00/M01 Q1011

Kuopio Approach: 130.600
Kuopio Tower: 120.150

Dutch Mil Radar (Archives)
Amsterdam, Netherlands

Feed Status: UP
Listen in your browser - HTML5 player(in browser, HTML5)
Click here to listen with your own player(launches your MP3 player)

EHLE 240655Z AUTO 17004KT 9000 OVC023 04/01 Q1034 NOSIG

EHLE Flight Activity (Flightaware)

Listeners: 2 out of 1253 total

Approach: 124.530
Dutch Mil Flight Info: 264.325
Dutch Mil Radar: 128.355
Dutch Mil Radar: 132.350

EHAA Radar ARTIP (Archives)
Amsterdam, Netherlands

Feed Status: UP
Listen in your browser - HTML5 player(in browser, HTML5)
Click here to listen with your own player(launches your MP3 player)

EHAM 240655Z 14004KT 9999 OVC021 05/02 Q1034 NOSIG

EHAM Flight Activity (Flightaware)

Listeners: 0 out of 1253 total

EHAA Radar Sector 1 ARTIP: 120.550

EHAA Radar East Inbound (Archives)
Amsterdam, Netherlands

Feed Status: UP
Listen in your browser - HTML5 player(in browser, HTML5)
Click here to listen with your own player(launches your MP3 player)

EHAM 240655Z 14004KT 9999 OVC021 05/02 Q1034 NOSIG

EHAM Flight Activity (Flightaware)

Listeners: 0 out of 1253 total

EHAA Radar Sector 2 East Inbound: 128.575

EHAA Radar East Outbound (Archives)
Amsterdam, Netherlands

Feed Status: UP
Listen in your browser - HTML5 player(in browser, HTML5)
Click here to listen with your own player(launches your MP3 player)

EHAM 240655Z 14004KT 9999 OVC021 05/02 Q1034 NOSIG

EHAM Flight Activity (Flightaware)

Listeners: 0 out of 1253 total

EHAA Radar Sector 2 East Outbound: 124.875

EHAA Radar North (Archives)
Amsterdam, Netherlands

Feed Status: UP
Listen in your browser - HTML5 player(in browser, HTML5)
Click here to listen with your own player(launches your MP3 player)

EHAM 240655Z 14004KT 9999 OVC021 05/02 Q1034 NOSIG

EHAM Flight Activity (Flightaware)

Listeners: 0 out of 1253 total

EHAA Radar Sector 1 North: 134.375

EHAA Radar Northwest (Archives)
Amsterdam, Netherlands

Feed Status: UP
Listen in your browser - HTML5 player(in browser, HTML5)
Click here to listen with your own player(launches your MP3 player)

EHAM 240655Z 14004KT 9999 OVC021 05/02 Q1034 NOSIG

EHAM Flight Activity (Flightaware)

Listeners: 0 out of 1253 total

EHAA Radar Sector 5 Northwest: 123.705

EHAA Radar RIVER (Archives)
Amsterdam, Netherlands

Feed Status: UP
Listen in your browser - HTML5 player(in browser, HTML5)
Click here to listen with your own player(launches your MP3 player)

EHAM 240655Z 14004KT 9999 OVC021 05/02 Q1034 NOSIG

EHAM Flight Activity (Flightaware)

Listeners: 0 out of 1253 total

EHAA Radar Sector 3 RIVER: 130.950

EHAA Radar South (Archives)
Amsterdam, Netherlands

Feed Status: UP
Listen in your browser - HTML5 player(in browser, HTML5)
Click here to listen with your own player(launches your MP3 player)

EHAM 240655Z 14004KT 9999 OVC021 05/02 Q1034 NOSIG

EHAM Flight Activity (Flightaware)

Listeners: 0 out of 1253 total

EHAA Radar Sector 3 South: 123.850

EHAA Radar South (Backup) (Archives)
Amsterdam, Netherlands

Feed Status: UP
Listen in your browser - HTML5 player(in browser, HTML5)
Click here to listen with your own player(launches your MP3 player)

EHAM 240655Z 14004KT 9999 OVC021 05/02 Q1034 NOSIG

EHAM Flight Activity (Flightaware)

Listeners: 0 out of 1253 total

EHAA Radar Sector 3 South Backup : 127.775

EHAA Radar Southwest (Archives)
Amsterdam, Netherlands

Feed Status: UP
Listen in your browser - HTML5 player(in browser, HTML5)
Click here to listen with your own player(launches your MP3 player)

EHAM 240655Z 14004KT 9999 OVC021 05/02 Q1034 NOSIG

EHAM Flight Activity (Flightaware)

Listeners: 0 out of 1253 total

EHAA Radar Sector 4 Southwest: 125.750

EHAA Radar SUGOL (Archives)
Amsterdam, Netherlands

Feed Status: UP
Listen in your browser - HTML5 player(in browser, HTML5)
Click here to listen with your own player(launches your MP3 player)

EHAM 240655Z 14004KT 9999 OVC021 05/02 Q1034 NOSIG

EHAM Flight Activity (Flightaware)

Listeners: 0 out of 1253 total

EHAA Radar Sector 5 SUGOL: 118.800

EHAM Airside Ops Mgr (AOM) (Archives)
Amsterdam, Netherlands

Feed Status: UP
Listen in your browser - HTML5 player(in browser, HTML5)
Click here to listen with your own player(launches your MP3 player)

EHAM 240655Z 14004KT 9999 OVC021 05/02 Q1034 NOSIG

EHAM Flight Activity (Flightaware)

Listeners: 0 out of 1253 total

Schiphol Airside Operations Manager: 130.475

EHAM App/Dep Backup (Archives)
Amsterdam, Netherlands

Feed Status: UP
Listen in your browser - HTML5 player(in browser, HTML5)
Click here to listen with your own player(launches your MP3 player)

EHAM 240655Z 14004KT 9999 OVC021 05/02 Q1034 NOSIG

EHAM Flight Activity (Flightaware)

Listeners: 0 out of 1253 total

Schiphol App/Dep Backup: 118.075

EHAM App/Dep TMA East (Archives)
Amsterdam, Netherlands

Feed Status: UP
Listen in your browser - HTML5 player(in browser, HTML5)
Click here to listen with your own player(launches your MP3 player)

EHAM 240655Z 14004KT 9999 OVC021 05/02 Q1034 NOSIG

EHAM Flight Activity (Flightaware)

Listeners: 3 out of 1253 total

Amsterdam Approach/Departure TMA East: 119.055

EHAM App/Dep TMA West (Archives)
Amsterdam, Netherlands

Feed Status: UP
Listen in your browser - HTML5 player(in browser, HTML5)
Click here to listen with your own player(launches your MP3 player)

EHAM 240655Z 14004KT 9999 OVC021 05/02 Q1034 NOSIG

EHAM Flight Activity (Flightaware)

Listeners: 2 out of 1253 total

Amsterdam Approach/Departure TMA West: 121.200

EHAM Apron (North) (Archives)
Amsterdam, Netherlands

Feed Status: UP
Listen in your browser - HTML5 player(in browser, HTML5)
Click here to listen with your own player(launches your MP3 player)

EHAM 240655Z 14004KT 9999 OVC021 05/02 Q1034 NOSIG

EHAM Flight Activity (Flightaware)

Listeners: 0 out of 1253 total

Schiphol Apron (North): 121.880

EHAM Apron (South) (Archives)
Amsterdam, Netherlands

Feed Status: UP
Listen in your browser - HTML5 player(in browser, HTML5)
Click here to listen with your own player(launches your MP3 player)

EHAM 240655Z 14004KT 9999 OVC021 05/02 Q1034 NOSIG

EHAM Flight Activity (Flightaware)

Listeners: 0 out of 1253 total

Schiphol Apron (South): 121.780

EHAM Arrival (Primary) (Archives)
Amsterdam, Netherlands

Feed Status: UP
Listen in your browser - HTML5 player(in browser, HTML5)
Click here to listen with your own player(launches your MP3 player)

EHAM 240655Z 14004KT 9999 OVC021 05/02 Q1034 NOSIG

EHAM Flight Activity (Flightaware)

Listeners: 0 out of 1253 total

Amsterdam Arrival : 118.400

EHAM Arrival (Secondary) (Archives)
Amsterdam, Netherlands

Feed Status: UP
Listen in your browser - HTML5 player(in browser, HTML5)
Click here to listen with your own player(launches your MP3 player)

EHAM 240655Z 14004KT 9999 OVC021 05/02 Q1034 NOSIG

EHAM Flight Activity (Flightaware)

Listeners: 0 out of 1253 total

Amsterdam Arrival (Secondary): 131.150

EHAM Arrival (Secondary/Backup) (Archives)
Amsterdam, Netherlands

Feed Status: UP
Listen in your browser - HTML5 player(in browser, HTML5)
Click here to listen with your own player(launches your MP3 player)

EHAM 240655Z 14004KT 9999 OVC021 05/02 Q1034 NOSIG

EHAM Flight Activity (Flightaware)

Listeners: 0 out of 1253 total

Amsterdam Arrival (Secondary Backup): 131.275

EHAM Arrival Backup/Discrete (Archives)
Amsterdam, Netherlands

Feed Status: UP
Listen in your browser - HTML5 player(in browser, HTML5)
Click here to listen with your own player(launches your MP3 player)

EHAM 240655Z 14004KT 9999 OVC021 05/02 Q1034 NOSIG

EHAM Flight Activity (Flightaware)

Listeners: 0 out of 1253 total

Schiphol Arrival Backup: 126.675

EHAM ATIS (Arrival) (Archives)
Amsterdam, Netherlands

Feed Status: UP
Listen in your browser - HTML5 player(in browser, HTML5)
Click here to listen with your own player(launches your MP3 player)

EHAM 240655Z 14004KT 9999 OVC021 05/02 Q1034 NOSIG

EHAM Flight Activity (Flightaware)

Listeners: 0 out of 1253 total

Schiphol ATIS (Arrival): 132.980

EHAM ATIS (Departure) (Archives)
Amsterdam, Netherlands

Feed Status: UP
Listen in your browser - HTML5 player(in browser, HTML5)
Click here to listen with your own player(launches your MP3 player)

EHAM 240655Z 14004KT 9999 OVC021 05/02 Q1034 NOSIG

EHAM Flight Activity (Flightaware)

Listeners: 0 out of 1253 total

Schiphol ATIS (Departure): 122.205

EHAM Clearance Delivery (Archives)
Amsterdam, Netherlands

Feed Status: UP
Listen in your browser - HTML5 player(in browser, HTML5)
Click here to listen with your own player(launches your MP3 player)

EHAM 240655Z 14004KT 9999 OVC021 05/02 Q1034 NOSIG

EHAM Flight Activity (Flightaware)

Listeners: 0 out of 1253 total

Schiphol Clearance Delivery: 121.980

EHAM Ground (Backup) (Archives)
Amsterdam, Netherlands

Feed Status: UP
Listen in your browser - HTML5 player(in browser, HTML5)
Click here to listen with your own player(launches your MP3 player)

EHAM 240655Z 14004KT 9999 OVC021 05/02 Q1034 NOSIG

EHAM Flight Activity (Flightaware)

Listeners: 0 out of 1253 total

Schiphol Ground (Backup): 122.425

EHAM Ground (North) (Archives)
Amsterdam, Netherlands

Feed Status: UP
Listen in your browser - HTML5 player(in browser, HTML5)
Click here to listen with your own player(launches your MP3 player)

EHAM 240655Z 14004KT 9999 OVC021 05/02 Q1034 NOSIG

EHAM Flight Activity (Flightaware)

Listeners: 0 out of 1253 total

Schiphol Ground (North): 121.805

EHAM Ground (South) (Archives)
Amsterdam, Netherlands

Feed Status: UP
Listen in your browser - HTML5 player(in browser, HTML5)
Click here to listen with your own player(launches your MP3 player)

EHAM 240655Z 14004KT 9999 OVC021 05/02 Q1034 NOSIG

EHAM Flight Activity (Flightaware)

Listeners: 0 out of 1253 total

Schiphol Ground (South): 121.705

EHAM Ground (West) (Archives)
Amsterdam, Netherlands

Feed Status: UP
Listen in your browser - HTML5 player(in browser, HTML5)
Click here to listen with your own player(launches your MP3 player)

EHAM 240655Z 14004KT 9999 OVC021 05/02 Q1034 NOSIG

EHAM Flight Activity (Flightaware)

Listeners: 0 out of 1253 total

Schiphol Ground (West): 121.560

EHAM Info North Sea (North) (Archives)
Amsterdam, Netherlands

Feed Status: UP
Listen in your browser - HTML5 player(in browser, HTML5)
Click here to listen with your own player(launches your MP3 player)

EHAM 240655Z 14004KT 9999 OVC021 05/02 Q1034 NOSIG

EHAM Flight Activity (Flightaware)

Listeners: 0 out of 1253 total

Amsterdam Info North Sea (North): 119.175

EHAM Info North Sea (Over Land) (Archives)
Amsterdam, Netherlands

Feed Status: UP
Listen in your browser - HTML5 player(in browser, HTML5)
Click here to listen with your own player(launches your MP3 player)

EHAM 240655Z 14004KT 9999 OVC021 05/02 Q1034 NOSIG

EHAM Flight Activity (Flightaware)

Listeners: 0 out of 1253 total

Amsterdam Info North Sea (Over Land): 124.300

EHAM Info North Sea (South) (Archives)
Amsterdam, Netherlands

Feed Status: UP
Listen in your browser - HTML5 player(in browser, HTML5)
Click here to listen with your own player(launches your MP3 player)

EHAM 240655Z 14004KT 9999 OVC021 05/02 Q1034 NOSIG

EHAM Flight Activity (Flightaware)

Listeners: 0 out of 1253 total

Amsterdam Info North Sea (South): 136.650

EHAM Schiphol Outbound Planner (Archives)
Amsterdam, Netherlands

Feed Status: UP
Listen in your browser - HTML5 player(in browser, HTML5)
Click here to listen with your own player(launches your MP3 player)

EHAM 240655Z 14004KT 9999 OVC021 05/02 Q1034 NOSIG

EHAM Flight Activity (Flightaware)

Listeners: 0 out of 1253 total

Schiphol Outbound Planner: 121.655

EHAM Tow Traffic (Archives)
Amsterdam, Netherlands

Feed Status: UP
Listen in your browser - HTML5 player(in browser, HTML5)
Click here to listen with your own player(launches your MP3 player)

EHAM 240655Z 14004KT 9999 OVC021 05/02 Q1034 NOSIG

EHAM Flight Activity (Flightaware)

Listeners: 0 out of 1253 total

Schiphol Tow Traffic: 134.875

EHAM Tower (06/24) (Archives)
Amsterdam, Netherlands

Feed Status: UP
Listen in your browser - HTML5 player(in browser, HTML5)
Click here to listen with your own player(launches your MP3 player)

EHAM 240655Z 14004KT 9999 OVC021 05/02 Q1034 NOSIG

EHAM Flight Activity (Flightaware)

Listeners: 0 out of 1253 total

Schiphol Tower Main 06/24: 135.110

EHAM Tower (18C/36C-27/09) (Archives)
Amsterdam, Netherlands

Feed Status: UP
Listen in your browser - HTML5 player(in browser, HTML5)
Click here to listen with your own player(launches your MP3 player)

EHAM 240655Z 14004KT 9999 OVC021 05/02 Q1034 NOSIG

EHAM Flight Activity (Flightaware)

Listeners: 1 out of 1253 total

Schiphol Tower Main 18C/36C - 27/09: 118.100

EHAM Tower (18L/36R-22/04) (Archives)
Amsterdam, Netherlands

Feed Status: UP
Listen in your browser - HTML5 player(in browser, HTML5)
Click here to listen with your own player(launches your MP3 player)

EHAM 240655Z 14004KT 9999 OVC021 05/02 Q1034 NOSIG

EHAM Flight Activity (Flightaware)

Listeners: 0 out of 1253 total

Schiphol Tower Main 18L/36R - 22/04: 119.225

EHAM Tower Backup (Archives)
Amsterdam, Netherlands

Feed Status: UP
Listen in your browser - HTML5 player(in browser, HTML5)
Click here to listen with your own player(launches your MP3 player)

EHAM 240655Z 14004KT 9999 OVC021 05/02 Q1034 NOSIG

EHAM Flight Activity (Flightaware)

Listeners: 0 out of 1253 total

Schiphol Tower Backup: 119.905

EHAM Tower West (18R/36L) (Archives)
Amsterdam, Netherlands

Feed Status: UP
Listen in your browser - HTML5 player(in browser, HTML5)
Click here to listen with your own player(launches your MP3 player)

EHAM 240655Z 14004KT 9999 OVC021 05/02 Q1034 NOSIG

EHAM Flight Activity (Flightaware)

Listeners: 2 out of 1253 total

Schiphol Tower West 18R/36L: 118.280

EHBK ATIS (Archives)
Beek, Netherlands

Feed Status: UP
Listen in your browser - HTML5 player(in browser, HTML5)
Click here to listen with your own player(launches your MP3 player)

EHBK 240655Z AUTO VRB01KT 9999 OVC016 03/M00 Q1033 NOSIG

EHBK Flight Activity (Flightaware)

Listeners: 0 out of 1253 total

Beek ATIS: 124.575

EHBK Gnd/Twr/App (Archives)
Beek, Netherlands

Feed Status: UP
Listen in your browser - HTML5 player(in browser, HTML5)
Click here to listen with your own player(launches your MP3 player)

EHBK 240655Z AUTO VRB01KT 9999 OVC016 03/M00 Q1033 NOSIG

EHBK Flight Activity (Flightaware)

Listeners: 2 out of 1253 total

Beek Approach: 120.200
Beek Approach: 123.975
Beek Ground: 121.825
Beek Tower: 119.475
Beek Tower: 119.700

MUAC/Eurocontrol Delta High (Archives)
Beek, Netherlands

Feed Status: UP
Listen in your browser - HTML5 player(in browser, HTML5)
Click here to listen with your own player(launches your MP3 player)

EHBK 240655Z AUTO VRB01KT 9999 OVC016 03/M00 Q1033 NOSIG

EHBK Flight Activity (Flightaware)

Listeners: 0 out of 1253 total

MUAC Delta High Sector: 132.085

MUAC/Eurocontrol Koksy (Archives)
Beek, Netherlands

Feed Status: UP
Listen in your browser - HTML5 player(in browser, HTML5)
Click here to listen with your own player(launches your MP3 player)

EHBK 240655Z AUTO VRB01KT 9999 OVC016 03/M00 Q1033 NOSIG

EHBK Flight Activity (Flightaware)

Listeners: 0 out of 1253 total

MUAC Koksy Sector: 132.205

MUAC/Eurocontrol Koksy High (Archives)
Beek, Netherlands

Feed Status: UP
Listen in your browser - HTML5 player(in browser, HTML5)
Click here to listen with your own player(launches your MP3 player)

EHBK 240655Z AUTO VRB01KT 9999 OVC016 03/M00 Q1033 NOSIG

EHBK Flight Activity (Flightaware)

Listeners: 0 out of 1253 total

MUAC Koksy High Sector: 132.755

MUAC/Eurocontrol Lux High (Archives)
Beek, Netherlands

Feed Status: UP
Listen in your browser - HTML5 player(in browser, HTML5)
Click here to listen with your own player(launches your MP3 player)

EHBK 240655Z AUTO VRB01KT 9999 OVC016 03/M00 Q1033 NOSIG

EHBK Flight Activity (Flightaware)

Listeners: 0 out of 1253 total

MUAC Lux High Sector: 132.315

MUAC/Eurocontrol Lux Low (Archives)
Beek, Netherlands

Feed Status: UP
Listen in your browser - HTML5 player(in browser, HTML5)
Click here to listen with your own player(launches your MP3 player)

EHBK 240655Z AUTO VRB01KT 9999 OVC016 03/M00 Q1033 NOSIG

EHBK Flight Activity (Flightaware)

Listeners: 2 out of 1253 total

MUAC Lux Low Sector: 133.355

MUAC/Eurocontrol Olno Low (Archives)
Beek, Netherlands

Feed Status: UP
Listen in your browser - HTML5 player(in browser, HTML5)
Click here to listen with your own player(launches your MP3 player)

EHBK 240655Z AUTO VRB01KT 9999 OVC016 03/M00 Q1033 NOSIG

EHBK Flight Activity (Flightaware)

Listeners: 0 out of 1253 total

MUAC Olno Low Sector: 132.855

MUAC/Eurocontrol Ruhr (Archives)
Beek, Netherlands

Feed Status: UP
Listen in your browser - HTML5 player(in browser, HTML5)
Click here to listen with your own player(launches your MP3 player)

EHBK 240655Z AUTO VRB01KT 9999 OVC016 03/M00 Q1033 NOSIG

EHBK Flight Activity (Flightaware)

Listeners: 2 out of 1253 total

MUAC Ruhr Sector: 132.515

EHEH Approach #1 (Archives)
Eindhoven, Netherlands

Feed Status: UP
Listen in your browser - HTML5 player(in browser, HTML5)
Click here to listen with your own player(launches your MP3 player)

EHEH 240655Z AUTO 18003KT 9999 OVC018 04/01 Q1034 WHT TEMPO OVC020

EHEH Flight Activity (Flightaware)

Listeners: 0 out of 1253 total

DutchMil Info: 132.355
DutchMil Info UHF: 341.600
DutchMil RAPCON South: 123.180
Eindhoven Arrival: 125.530
Eindhoven Arrival (UHF): 265.975
Emergency/Guard: 121.500
Rapcon South UHF: 388.525
Volkel Arrival UHF: 291.200

EHEH Tower #1 (Archives)
Eindhoven, Netherlands

Feed Status: UP
Listen in your browser - HTML5 player(in browser, HTML5)
Click here to listen with your own player(launches your MP3 player)

EHEH 240655Z AUTO 18003KT 9999 OVC018 04/01 Q1034 WHT TEMPO OVC020

EHEH Flight Activity (Flightaware)

Listeners: 0 out of 1253 total

Eindhoven Tower: 131.005
Eindhoven Tower (UHF): 241.550
Generic Tower: 122.100
Generic Tower (UHF): 257.800
Volkel Tower: 136.080
Volkel Tower (UHF): 291.100

EHGG Approach (Archives)
Groningen, Netherlands

Feed Status: UP
Listen in your browser - HTML5 player(in browser, HTML5)
Click here to listen with your own player(launches your MP3 player)

EHGG 240655Z AUTO 24003KT 180V280 9999 OVC022 04/02 Q1034 NOSIG

EHGG Flight Activity (Flightaware)

Listeners: 0 out of 1253 total

Eelde Approach: 120.305

EHGG ATIS (Archives)
Groningen, Netherlands

Feed Status: UP
Listen in your browser - HTML5 player(in browser, HTML5)
Click here to listen with your own player(launches your MP3 player)

EHGG 240655Z AUTO 24003KT 180V280 9999 OVC022 04/02 Q1034 NOSIG

EHGG Flight Activity (Flightaware)

Listeners: 0 out of 1253 total

Groningen ATIS: 133.555

EHGG Ground (Archives)
Groningen, Netherlands

Feed Status: UP
Listen in your browser - HTML5 player(in browser, HTML5)
Click here to listen with your own player(launches your MP3 player)

EHGG 240655Z AUTO 24003KT 180V280 9999 OVC022 04/02 Q1034 NOSIG

EHGG Flight Activity (Flightaware)

Listeners: 0 out of 1253 total

Eelde Clearance Delivery/Ground: 121.705

EHGG Guard/Emergency (Archives)
Groningen, Netherlands

Feed Status: UP
Listen in your browser - HTML5 player(in browser, HTML5)
Click here to listen with your own player(launches your MP3 player)

EHGG 240655Z AUTO 24003KT 180V280 9999 OVC022 04/02 Q1034 NOSIG

EHGG Flight Activity (Flightaware)

Listeners: 0 out of 1253 total

Emergency/Guard: 121.500

EHGG Tower (Archives)
Groningen, Netherlands

Feed Status: UP
Listen in your browser - HTML5 player(in browser, HTML5)
Click here to listen with your own player(launches your MP3 player)

EHGG 240655Z AUTO 24003KT 180V280 9999 OVC022 04/02 Q1034 NOSIG

EHGG Flight Activity (Flightaware)

Listeners: 2 out of 1253 total

Eelde Tower: 118.705

EHGG Twr/App (Secondary) (Archives)
Groningen, Netherlands

Feed Status: UP
Listen in your browser - HTML5 player(in browser, HTML5)
Click here to listen with your own player(launches your MP3 player)

EHGG 240655Z AUTO 24003KT 180V280 9999 OVC022 04/02 Q1034 NOSIG

EHGG Flight Activity (Flightaware)

Listeners: 0 out of 1253 total

Eelde Tower/App (Backup): 119.705

MUAC/Eurocontrol (EHGG Area) (Archives)
Groningen, Netherlands

Feed Status: UP
Listen in your browser - HTML5 player(in browser, HTML5)
Click here to listen with your own player(launches your MP3 player)

EHGG 240655Z AUTO 24003KT 180V280 9999 OVC022 04/02 Q1034 NOSIG

EHGG Flight Activity (Flightaware)

Listeners: 0 out of 1253 total

MUAC Holstein High Sector: 132.775
MUAC Holstein Sector: 120.9333
MUAC Javer High Sector: 134.700
MUAC Jever Sector: 136.4666

EHGR Ground (Archives)
Breda, Netherlands

Feed Status: UP
Listen in your browser - HTML5 player(in browser, HTML5)
Click here to listen with your own player(launches your MP3 player)

EHGR 240655Z AUTO 15003KT 9999 OVC019 04/00 Q1034 WHT

EHGR Flight Activity (Flightaware)

Listeners: 0 out of 1253 total

Gilze Rijen Ground: 121.680

EHGR Ground/Tower (Archives)
Breda, Netherlands

Feed Status: UP
Listen in your browser - HTML5 player(in browser, HTML5)
Click here to listen with your own player(launches your MP3 player)

EHGR 240655Z AUTO 15003KT 9999 OVC019 04/00 Q1034 WHT

EHGR Flight Activity (Flightaware)

Listeners: 0 out of 1253 total

Gilze Rijen Ground: 121.680
Gilze Rijen Tower: 125.330

EHGR Tower (Archives)
Breda, Netherlands

Feed Status: UP
Listen in your browser - HTML5 player(in browser, HTML5)
Click here to listen with your own player(launches your MP3 player)

EHGR 240655Z AUTO 15003KT 9999 OVC019 04/00 Q1034 WHT

EHGR Flight Activity (Flightaware)

Listeners: 0 out of 1253 total

Gilze Rijen Tower: 125.330

EHHV CTAF (Archives)
Hilversum, Netherlands

Feed Status: UP
Listen in your browser - HTML5 player(in browser, HTML5)
Click here to listen with your own player(launches your MP3 player)

EHHV Flight Activity (Flightaware)

Listeners: 0 out of 1253 total

Hilversum Radio: 131.030

EHKD ATIS (Archives)
Den Helder, Netherlands

Feed Status: UP
Listen in your browser - HTML5 player(in browser, HTML5)
Click here to listen with your own player(launches your MP3 player)

EHKD 240655Z AUTO 20004KT 9999 OVC020 05/02 Q1034 WHT NOSIG

EHKD Flight Activity (Flightaware)

Listeners: 0 out of 1253 total

De Kooy ATIS: 133.015

EHKD Ground/Tower (Archives)
Den Helder, Netherlands

Feed Status: UP
Listen in your browser - HTML5 player(in browser, HTML5)
Click here to listen with your own player(launches your MP3 player)

EHKD 240655Z AUTO 20004KT 9999 OVC020 05/02 Q1034 WHT NOSIG

EHKD Flight Activity (Flightaware)

Listeners: 0 out of 1253 total

De Kooy Ground: 121.730
De Kooy Tower: 120.130

Approach/Dutch Mil Radar (Archives)
Lelystad, Netherlands

Feed Status: UP
Listen in your browser - HTML5 player(in browser, HTML5)
Click here to listen with your own player(launches your MP3 player)

EHLE 240655Z AUTO 17004KT 9000 OVC023 04/01 Q1034 NOSIG

EHLE Flight Activity (Flightaware)

Listeners: 2 out of 1253 total

Approach: 124.530
Dutch Mil Flight Info: 264.325
Dutch Mil Radar: 128.355
Dutch Mil Radar: 132.350

EHLE App/Dep (Archives)
Lelystad, Netherlands

Feed Status: UP
Listen in your browser - HTML5 player(in browser, HTML5)
Click here to listen with your own player(launches your MP3 player)

EHLE 240655Z AUTO 17004KT 9000 OVC023 04/01 Q1034 NOSIG

EHLE Flight Activity (Flightaware)

Listeners: 0 out of 1253 total

Lelystad Approach: 134.530

EHLE Clearance Delivery (Archives)
Lelystad, Netherlands

Feed Status: UP
Listen in your browser - HTML5 player(in browser, HTML5)
Click here to listen with your own player(launches your MP3 player)

EHLE 240655Z AUTO 17004KT 9000 OVC023 04/01 Q1034 NOSIG

EHLE Flight Activity (Flightaware)

Listeners: 1 out of 1253 total

Lelystad Clearance Delivery: 123.680

EHLE FIC (Archives)
Lelystad, Netherlands

Feed Status: UP
Listen in your browser - HTML5 player(in browser, HTML5)
Click here to listen with your own player(launches your MP3 player)

EHLE 240655Z AUTO 17004KT 9000 OVC023 04/01 Q1034 NOSIG

EHLE Flight Activity (Flightaware)

Listeners: 0 out of 1253 total

FIC Amsterdam Information: 124.300

EHLE Tower (Archives)
Lelystad, Netherlands

Feed Status: UP
Listen in your browser - HTML5 player(in browser, HTML5)
Click here to listen with your own player(launches your MP3 player)

EHLE 240655Z AUTO 17004KT 9000 OVC023 04/01 Q1034 NOSIG

EHLE Flight Activity (Flightaware)

Listeners: 1 out of 1253 total

Lelystad Tower: 135.180
Lelystad Tower: 123.830

EHMM CTAF
Middenmeer, Netherlands

Feed Status: DOWN
Offline since: 2022-01-22 16:06:39 UTC

Middenmeer CTAF: 123.425

EHMZ (Archives)
Middelburg, Netherlands

Feed Status: UP
Listen in your browser - HTML5 player(in browser, HTML5)
Click here to listen with your own player(launches your MP3 player)

EHMZ Flight Activity (Flightaware)

Listeners: 0 out of 1253 total

Midden-Zeeland Radio: 119.255

EHRD Approach (Archives)
Rotterdam, Netherlands

Feed Status: UP
Listen in your browser - HTML5 player(in browser, HTML5)
Click here to listen with your own player(launches your MP3 player)

EHRD 240655Z AUTO 14003KT 090V180 9999 OVC021 05/01 Q1034 NOSIG

EHRD Flight Activity (Flightaware)

Listeners: 1 out of 1253 total

Rotterdam Approach: 122.990
Rotterdam Approach: 124.535
Rotterdam Approach: 281.050

EHRD Clearance Delivery (Archives)
Rotterdam, Netherlands

Feed Status: UP
Listen in your browser - HTML5 player(in browser, HTML5)
Click here to listen with your own player(launches your MP3 player)

EHRD 240655Z AUTO 14003KT 090V180 9999 OVC021 05/01 Q1034 NOSIG

EHRD Flight Activity (Flightaware)

Listeners: 2 out of 1253 total

Rotterdam Del/Gnd: 122.180

EHRD Del/Twr (Archives)
Rotterdam, Netherlands

Feed Status: UP
Listen in your browser - HTML5 player(in browser, HTML5)
Click here to listen with your own player(launches your MP3 player)

EHRD 240655Z AUTO 14003KT 090V180 9999 OVC021 05/01 Q1034 NOSIG

EHRD Flight Activity (Flightaware)

Listeners: 2 out of 1253 total

Rotterdam Del/Gnd: 122.180
Rotterdam Tower: 118.205

EHRD Gnd/Twr/App (Archives)
Rotterdam, Netherlands

Feed Status: UP
Listen in your browser - HTML5 player(in browser, HTML5)
Click here to listen with your own player(launches your MP3 player)

EHRD 240655Z AUTO 14003KT 090V180 9999 OVC021 05/01 Q1034 NOSIG

EHRD Flight Activity (Flightaware)

Listeners: 1 out of 1253 total

Adam Info: 124.300
Regional Guard: 119.705
Rotterdam Approach: 127.025
Rotterdam Del/Gnd: 122.180
Rotterdam Tower: 118.205
SAR: 123.100
SAR: 282.800

EHRD Tower (Archives)
Rotterdam, Netherlands

Feed Status: UP
Listen in your browser - HTML5 player(in browser, HTML5)
Click here to listen with your own player(launches your MP3 player)

EHRD 240655Z AUTO 14003KT 090V180 9999 OVC021 05/01 Q1034 NOSIG

EHRD Flight Activity (Flightaware)

Listeners: 0 out of 1253 total

Rotterdam Tower: 118.205
Rotterdam Tower: 362.300

EHRD Twr/App
Rotterdam, Netherlands

Feed Status: DOWN
Offline since: 2020-03-14 14:15:39 UTC

EHRD 240655Z AUTO 14003KT 090V180 9999 OVC021 05/01 Q1034 NOSIG

Rotterdam Approach: 127.025
Rotterdam Tower: 118.205

EHSE Radio/FIC
Bosschenhoofd, Netherlands

Feed Status: DOWN
Offline since: 2022-01-20 21:58:38 UTC

Dutch MIL Info FIC: 132.350
Seppe Radio (Tower/Ground): 120.655

EHTX Gnd/Twr
Texel, Netherlands

Feed Status: DOWN
Offline since: 2021-06-08 14:20:38 UTC

Texel Radio (Ground/Tower): 119.300

EHVL CTAF/Range Control
Vlieland, Netherlands

Feed Status: DOWN
Offline since: 2021-06-08 14:20:38 UTC

EHVL 240655Z AUTO 21006KT 9999 OVC018 06/02 Q1034 WHT

Cornfield VHF (CTAF): 122.100
Range Controller (Primary): 291.650
Range Controller (Secondary): 370.300
Range Controller VHF: 138.075

EICK Approach/Departure (Archives)
Cork, Ireland

Feed Status: UP
Listen in your browser - HTML5 player(in browser, HTML5)
Click here to listen with your own player(launches your MP3 player)

EICK 240630Z 14010KT 9999 FEW012 BKN020 07/05 Q1028 NOSIG

EICK Flight Activity (Flightaware)

Listeners: 1 out of 1253 total

Cork Approach: 119.900

EICK Gnd/Twr/App/Dep (Archives)
Cork, Ireland

Feed Status: UP
Listen in your browser - HTML5 player(in browser, HTML5)
Click here to listen with your own player(launches your MP3 player)

EICK 240630Z 14010KT 9999 FEW012 BKN020 07/05 Q1028 NOSIG

EICK Flight Activity (Flightaware)

Listeners: 1 out of 1253 total

Cork Approach: 119.900
Cork Ground: 121.850
Cork Tower: 119.300

EICK Ground/Tower (Archives)
Cork, Ireland

Feed Status: UP
Listen in your browser - HTML5 player(in browser, HTML5)
Click here to listen with your own player(launches your MP3 player)

EICK 240630Z 14010KT 9999 FEW012 BKN020 07/05 Q1028 NOSIG

EICK Flight Activity (Flightaware)

Listeners: 0 out of 1253 total

Cork Ground: 121.850
Cork Tower: 119.300

EIDW Approach (Archives)
Dublin, Ireland

Feed Status: UP
Listen in your browser - HTML5 player(in browser, HTML5)
Click here to listen with your own player(launches your MP3 player)

EIDW 240630Z 14004KT 110V170 9999 FEW006 BKN250 04/03 Q1030 NOSIG

EIDW Flight Activity (Flightaware)

Listeners: 1 out of 1253 total

Dublin Approach: 121.100

EIDW Approach (Final) (Archives)
Dublin, Ireland

Feed Status: UP
Listen in your browser - HTML5 player(in browser, HTML5)
Click here to listen with your own player(launches your MP3 player)

EIDW 240630Z 14004KT 110V170 9999 FEW006 BKN250 04/03 Q1030 NOSIG

EIDW Flight Activity (Flightaware)

Listeners: 0 out of 1253 total

Dublin Approach (Final): 119.925

EIDW Clearance Delivery (Archives)
Dublin, Ireland

Feed Status: UP
Listen in your browser - HTML5 player(in browser, HTML5)
Click here to listen with your own player(launches your MP3 player)

EIDW 240630Z 14004KT 110V170 9999 FEW006 BKN250 04/03 Q1030 NOSIG

EIDW Flight Activity (Flightaware)

Listeners: 1 out of 1253 total

Dublin Clearance Delivery: 121.875

EIDW Del/Gnd/Twr/App/Center (Archives)
Dublin, Ireland

Feed Status: UP
Listen in your browser - HTML5 player(in browser, HTML5)
Click here to listen with your own player(launches your MP3 player)

EIDW 240630Z 14004KT 110V170 9999 FEW006 BKN250 04/03 Q1030 NOSIG

EIDW Flight Activity (Flightaware)

Listeners: 10 out of 1253 total

Dublin Approach: 121.100
Dublin Approach (backup): 119.550
Dublin Centre North: 129.175
Dublin Centre South: 126.250
Dublin Clearance Delivery: 121.875
Dublin FIS: 118.500
Dublin Ground: 121.800
Dublin Tower: 118.600

EIDW Ground (Archives)
Dublin, Ireland

Feed Status: UP
Listen in your browser - HTML5 player(in browser, HTML5)
Click here to listen with your own player(launches your MP3 player)

EIDW 240630Z 14004KT 110V170 9999 FEW006 BKN250 04/03 Q1030 NOSIG

EIDW Flight Activity (Flightaware)

Listeners: 0 out of 1253 total

Dublin Ground: 121.800

EIDW Ground (North) (Archives)
Dublin, Ireland

Feed Status: UP
Listen in your browser - HTML5 player(in browser, HTML5)
Click here to listen with your own player(launches your MP3 player)

EIDW 240630Z 14004KT 110V170 9999 FEW006 BKN250 04/03 Q1030 NOSIG

EIDW Flight Activity (Flightaware)

Listeners: 3 out of 1253 total

Dublin Ground (North): 118.750

EIDW Tower (Archives)
Dublin, Ireland

Feed Status: UP
Listen in your browser - HTML5 player(in browser, HTML5)
Click here to listen with your own player(launches your MP3 player)

EIDW 240630Z 14004KT 110V170 9999 FEW006 BKN250 04/03 Q1030 NOSIG

EIDW Flight Activity (Flightaware)

Listeners: 0 out of 1253 total

Dublin Tower: 118.600

EIKN Gnd/Twr/App (Archives)
Charlestown, Ireland

Feed Status: UP
Listen in your browser - HTML5 player(in browser, HTML5)
Click here to listen with your own player(launches your MP3 player)

EIKN 240630Z 16006KT 9999 FEW005 SCT050 03/03 Q1027 NOSIG

EIKN Flight Activity (Flightaware)

Listeners: 0 out of 1253 total

Connaught Ground: 121.900
Connaught Tower: 130.700
Shannon Low Level: 119.075

EINN Shannon Control High (East) (Archives)
Shannon, Ireland

Feed Status: UP
Listen in your browser - HTML5 player(in browser, HTML5)
Click here to listen with your own player(launches your MP3 player)

EINN 240630Z 13006KT CAVOK 05/04 Q1029 NOSIG

EINN Flight Activity (Flightaware)

Listeners: 1 out of 1253 total

Shannon Clearance (Oceanic only): 121.700
Shannon Control: 134.260
Shannon Control: 134.630
Shannon Control: 135.230
Shannon Control: 135.600
Shannon Control: 136.255
Shannon Control (BABAN/DEVOL Sector): 132.150

EINN Shannon Control High (West/Coastal) (Archives)
Shannon, Ireland

Feed Status: UP
Listen in your browser - HTML5 player(in browser, HTML5)
Click here to listen with your own player(launches your MP3 player)

EINN 240630Z 13006KT CAVOK 05/04 Q1029 NOSIG

EINN Flight Activity (Flightaware)

Listeners: 5 out of 1253 total

Shannon Control: 131.150
Shannon Control: 125.880
Shannon Control: 120.040
Shannon Control: 122.980
Shannon Control: 127.130
Shannon Control: 129.665
Shannon Control: 133.360

EINN Shannon Control Low (Archives)
Shannon, Ireland

Feed Status: UP
Listen in your browser - HTML5 player(in browser, HTML5)
Click here to listen with your own player(launches your MP3 player)

EINN 240630Z 13006KT CAVOK 05/04 Q1029 NOSIG

EINN Flight Activity (Flightaware)

Listeners: 0 out of 1253 total

Shannon Control (Low): 119.080
Shannon Control Low: 124.700

EINN Twr/App #1 (Archives)
Shannon, Ireland

Feed Status: UP
Listen in your browser - HTML5 player(in browser, HTML5)
Click here to listen with your own player(launches your MP3 player)

EINN 240630Z 13006KT CAVOK 05/04 Q1029 NOSIG

EINN Flight Activity (Flightaware)

Listeners: 3 out of 1253 total

Aer Lingus Ops: 131.500
Service Air Ops: 131.450
Shannon Approach Radar: 121.400
Shannon Control: Misc
Shannon Ground: 121.800
Shannon Tower: 118.700
Sig Ops (Pre-Clearance): 131.590

ENAL Twr/App (Archives)
Alesund, Norway

Feed Status: UP
Listen in your browser - HTML5 player(in browser, HTML5)
Click here to listen with your own player(launches your MP3 player)

ENAL 240650Z 28010KT 250V310 9999 -RA SCT009 BKN014 04/03 Q1013

ENAL Flight Activity (Flightaware)

Listeners: 0 out of 1253 total

More Approach: 129.325
More Approach: 119.350
Vigra Tower: 118.100

ENAT Twr/App/Control (Archives)
Alta, Norway

Feed Status: UP
Listen in your browser - HTML5 player(in browser, HTML5)
Click here to listen with your own player(launches your MP3 player)

ENAT 240650Z 27015KT CAVOK 02/M06 Q0984 RMK WIND 700FT 26022KT

ENAT Flight Activity (Flightaware)

Listeners: 0 out of 1253 total

Alta Tower (to boat, Harbour Channel 12): 156.600
Alta Tower (to vehicle): 462.400
Alta Tower/Approach: 120.400
Norway Control: 126.700

ENBO Approach (Archives)
Bodo, Norway

Feed Status: UP
Listen in your browser - HTML5 player(in browser, HTML5)
Click here to listen with your own player(launches your MP3 player)

ENBO 240650Z 25026KT 9999 FEW010CB SCT030 BKN060 01/M02 Q0996 RESHSNRA

ENBO Flight Activity (Flightaware)

Listeners: 1 out of 1253 total

Bodo Approach: 119.700

ENBO Tower (Archives)
Bodo, Norway

Feed Status: UP
Listen in your browser - HTML5 player(in browser, HTML5)
Click here to listen with your own player(launches your MP3 player)

ENBO 240650Z 25026KT 9999 FEW010CB SCT030 BKN060 01/M02 Q0996 RESHSNRA

ENBO Flight Activity (Flightaware)

Listeners: 0 out of 1253 total

Bodo Tower: 118.100

ENCN Tower/Approach (Archives)
Kristiansand, Norway

Feed Status: UP
Listen in your browser - HTML5 player(in browser, HTML5)
Click here to listen with your own player(launches your MP3 player)

ENCN 240650Z 25013KT 9999 BKN020 07/03 Q1024

ENCN Flight Activity (Flightaware)

Listeners: 0 out of 1253 total

Kjevik Tower: 118.100
Kjevik Tower/Approach: 119.950

ENGM App/Polaris ACC (Archives)
Honefoss, Norway

Feed Status: UP
Listen in your browser - HTML5 player(in browser, HTML5)
Click here to listen with your own player(launches your MP3 player)

ENEG Flight Activity (Flightaware)

Listeners: 0 out of 1253 total

ENGM Approach (East): 118.475
ENGM Approach (West): 120.450
Polaris ACC Sector 4: 118.875
Polaris ACC Sector 7: 124.775
Polaris ACC Sector 8: 134.350

ENEV Twr/App/ACC (Archives)
Evenes, Norway

Feed Status: UP
Listen in your browser - HTML5 player(in browser, HTML5)
Click here to listen with your own player(launches your MP3 player)

ENEV 240650Z 26008KT 9999 BKN020 00/M01 Q0990 RESHRASN RMK WIND 1400FT 26032G44KT

ENEV Flight Activity (Flightaware)

Listeners: 1 out of 1253 total

Evenes Approach: 120.100
Evenes Tower: 118.000
Norway ACC (Bodo Sector 25): 126.450

ENGK Info (Archives)
Arendal, Norway

Feed Status: UP
Listen in your browser - HTML5 player(in browser, HTML5)
Click here to listen with your own player(launches your MP3 player)


ENGK Flight Activity (Flightaware)

Listeners: 0 out of 1253 total

Gullknapp Info: 129.900

ENGM App/Polaris ACC (Archives)
Oslo, Norway

Feed Status: UP
Listen in your browser - HTML5 player(in browser, HTML5)
Click here to listen with your own player(launches your MP3 player)

ENEG Flight Activity (Flightaware)

Listeners: 0 out of 1253 total

ENGM Approach (East): 118.475
ENGM Approach (West): 120.450
Polaris ACC Sector 4: 118.875
Polaris ACC Sector 7: 124.775
Polaris ACC Sector 8: 134.350

ENGM Tower (Archives)
Oslo, Norway

Feed Status: UP
Listen in your browser - HTML5 player(in browser, HTML5)
Click here to listen with your own player(launches your MP3 player)

ENGM 240650Z VRB01KT 9999 2400NW BCFG SCT001 M04/M04 Q1017 TEMPO 2000 BCFG

ENGM Flight Activity (Flightaware)

Listeners: 0 out of 1253 total

Oslo Tower (East): 120.100
Oslo Tower (West): 118.300

ENHD Tower (Archives)
Haugesund, Norway

Feed Status: UP
Listen in your browser - HTML5 player(in browser, HTML5)
Click here to listen with your own player(launches your MP3 player)

ENHD 240650Z 22014KT 7000 FEW007 BKN038 07/06 Q1023

ENHD Flight Activity (Flightaware)

Listeners: 0 out of 1253 total

Karmoy Tower: 120.500

ENJB CTAF (Archives)
Tonsberg, Norway

Feed Status: UP
Listen in your browser - HTML5 player(in browser, HTML5)
Click here to listen with your own player(launches your MP3 player)

ENTO 240650Z 23008KT CAVOK 03/00 Q1020 NOSIG

ENTO Flight Activity (Flightaware)

Listeners: 0 out of 1253 total

Jarlsberg CTAF: 122.300

ENLI CTAF (Archives)
Farsund, Norway

Feed Status: UP
Listen in your browser - HTML5 player(in browser, HTML5)
Click here to listen with your own player(launches your MP3 player)

ENLI Flight Activity (Flightaware)

Listeners: 0 out of 1253 total

Lista Traffic/Lista Radio: 126.450

ENOR Sector 8 (Archives)
Moss, Norway

Feed Status: UP
Listen in your browser - HTML5 player(in browser, HTML5)
Click here to listen with your own player(launches your MP3 player)

ENOR Flight Activity (Flightaware)

Listeners: 0 out of 1253 total

Norway Center (FIR) Sector 8: 118.875

ENRY Tower (Archives)
Moss, Norway

Feed Status: UP
Listen in your browser - HTML5 player(in browser, HTML5)
Click here to listen with your own player(launches your MP3 player)

ENRY 240650Z AUTO 21008KT 9999NDV NCD 03/01 Q1020

ENRY Flight Activity (Flightaware)

Listeners: 0 out of 1253 total

Rygge Tower: 119.500

ENTC Tower/App
Langnes, Norway

Feed Status: DOWN
Offline since: 2022-01-24 03:03:38 UTC

ENTC 240650Z 28016KT 0550 R36/P2000N R18/1800D SHSNRA VV005 M00/M01 Q0987 TEMPO 1000 SHSNRA VV009 RMK WIND 2600FT /////KT

Langnes Tower: 118.300
Langnes VDF (Approach): 123.750

ENTO App/Dep (Archives)
Sandefjord, Norway

Feed Status: UP
Listen in your browser - HTML5 player(in browser, HTML5)
Click here to listen with your own player(launches your MP3 player)

ENTO 240650Z 23008KT CAVOK 03/00 Q1020 NOSIG

ENTO Flight Activity (Flightaware)

Listeners: 0 out of 1253 total

Sandefjord Approach (TMA): 134.050

ENTO Control Sector 4 (Archives)
Sandefjord, Norway

Feed Status: UP
Listen in your browser - HTML5 player(in browser, HTML5)
Click here to listen with your own player(launches your MP3 player)

ENTO 240650Z 23008KT CAVOK 03/00 Q1020 NOSIG

ENTO Flight Activity (Flightaware)

Listeners: 0 out of 1253 total

Norway control Sector 4: 118.875

ENTO Tower (Archives)
Sandefjord, Norway

Feed Status: UP
Listen in your browser - HTML5 player(in browser, HTML5)
Click here to listen with your own player(launches your MP3 player)

ENTO 240650Z 23008KT CAVOK 03/00 Q1020 NOSIG

ENTO Flight Activity (Flightaware)

Listeners: 1 out of 1253 total

Sandefjord Tower: 118.650

ENTO Tower/App (Archives)
Sandefjord, Norway

Feed Status: UP
Listen in your browser - HTML5 player(in browser, HTML5)
Click here to listen with your own player(launches your MP3 player)

ENTO 240650Z 23008KT CAVOK 03/00 Q1020 NOSIG

ENTO Flight Activity (Flightaware)

Listeners: 0 out of 1253 total

ENJB Tonsberg Airport - Jarlsberg - CTAF: 122.300
Farris Approach (TCA): 134.050
Sandefjord Tower: 118.650

ENTO Twr/App (Archives)
Sandefjord, Norway

Feed Status: UP
Listen in your browser - HTML5 player(in browser, HTML5)
Click here to listen with your own player(launches your MP3 player)

ENTO 240650Z 23008KT CAVOK 03/00 Q1020 NOSIG

ENTO Flight Activity (Flightaware)

Listeners: 0 out of 1253 total

Sandefjord Approach (TMA): 134.050
Sandefjord Tower: 118.650

ENVA Gnd/Twr/App (Archives)
Trondheim, Norway

Feed Status: UP
Listen in your browser - HTML5 player(in browser, HTML5)
Click here to listen with your own player(launches your MP3 player)

ENVA 240650Z 29014KT 9999 -RA FEW015 BKN027 03/02 Q1009 TEMPO 4000 -RA BR BKN012 RMK WIND 670FT 29015KT

ENVA Flight Activity (Flightaware)

Listeners: 0 out of 1253 total

Trondheim Approach: 118.600
Trondheim Ground: 121.600
Trondheim Tower: 119.400

ENZV Gnd/Twr/App (Archives)
Stavanger, Norway

Feed Status: UP
Listen in your browser - HTML5 player(in browser, HTML5)
Click here to listen with your own player(launches your MP3 player)

ENZV 240650Z 23009KT 9999 OVC011 07/05 Q1025 NOSIG

ENZV Flight Activity (Flightaware)

Listeners: 1 out of 1253 total

Sola Approach/Departure: 119.600
Sola Ground: 121.750
Sola Tower: 118.350

EPGD Tower/Approach (Archives)
Gdansk, Poland

Feed Status: UP
Listen in your browser - HTML5 player(in browser, HTML5)
Click here to listen with your own player(launches your MP3 player)

EPGD 240630Z 23007KT 7000 -DZRA OVC003 01/01 Q1030

EPGD Flight Activity (Flightaware)

Listeners: 6 out of 1253 total

Gdansk Approach: 127.275
Gdansk Tower: 118.100

EPKK Tower/App (Archives)
Krakow, Poland

Feed Status: UP
Listen in your browser - HTML5 player(in browser, HTML5)
Click here to listen with your own player(launches your MP3 player)

EPKK 240630Z 06001KT 7000 NSC M11/M13 Q1035

EPKK Flight Activity (Flightaware)

Listeners: 4 out of 1253 total

Krakow Approach: 121.075
Krakow Approach: 123.255
Krakow Tower: 123.255

EPKR CTAF (Archives)
Krosno, Poland

Feed Status: UP
Listen in your browser - HTML5 player(in browser, HTML5)
Click here to listen with your own player(launches your MP3 player)

EPKR Flight Activity (Flightaware)

Listeners: 0 out of 1253 total

Krosno CTAF: 119.555

EPKT Del/Twr/App (Archives)
Katowice, Poland

Feed Status: UP
Listen in your browser - HTML5 player(in browser, HTML5)
Click here to listen with your own player(launches your MP3 player)

EPKT 240630Z 15004KT 080V200 6000 NSC M07/M08 Q1034

EPKT Flight Activity (Flightaware)

Listeners: 0 out of 1253 total

Katowice Delivery: 121.800
Katowice Tower: 129.250
Krakow Approach: 135.400
Krakow Approach: 121.075

EPKT Delivery/Approach (Archives)
Katowice, Poland

Feed Status: UP
Listen in your browser - HTML5 player(in browser, HTML5)
Click here to listen with your own player(launches your MP3 player)

EPKT 240630Z 15004KT 080V200 6000 NSC M07/M08 Q1034

EPKT Flight Activity (Flightaware)

Listeners: 0 out of 1253 total

Katowice Delivery: 121.800
Krakow Approach: 121.075

EPKT Tower/Approach (Archives)
Katowice, Poland

Feed Status: UP
Listen in your browser - HTML5 player(in browser, HTML5)
Click here to listen with your own player(launches your MP3 player)

EPKT 240630Z 15004KT 080V200 6000 NSC M07/M08 Q1034

EPKT Flight Activity (Flightaware)

Listeners: 0 out of 1253 total

Katowice Tower: 129.250
Krakow Approach: 135.400

EPLL Tower (Archives)
Lodz, Poland

Feed Status: UP
Listen in your browser - HTML5 player(in browser, HTML5)
Click here to listen with your own player(launches your MP3 player)

EPLL 240630Z VRB02KT 4500 BR OVC024 M03/M04 Q1034

EPLL Flight Activity (Flightaware)

Listeners: 0 out of 1253 total

Lodz Tower: 124.230

EPLS CTAF/Radio (Archives)
Leszno, Poland

Feed Status: UP
Listen in your browser - HTML5 player(in browser, HTML5)
Click here to listen with your own player(launches your MP3 player)

EPLS Flight Activity (Flightaware)

Listeners: 0 out of 1253 total

Leszno Radio: 122.305

EPML Info (Archives)
Mielec, Poland

Feed Status: UP
Listen in your browser - HTML5 player(in browser, HTML5)
Click here to listen with your own player(launches your MP3 player)

EPML Flight Activity (Flightaware)

Listeners: 0 out of 1253 total

Mielec Info: 119.105

EPPO Twr/App/FIS (Archives)
Poznan, Poland

Feed Status: UP
Listen in your browser - HTML5 player(in browser, HTML5)
Click here to listen with your own player(launches your MP3 player)

EPPO 240630Z 19002KT 1200 R28/2000U BR OVC004 01/01 Q1034

EPPO Flight Activity (Flightaware)

Listeners: 0 out of 1253 total

Poznan Approach: 129.025
Poznan Approach: 127.225
Poznan FIS: 126.300
Poznan Tower: 119.975

EPRZ Del/Twr/EPWW Radar (Archives)
Jasionka, Poland

Feed Status: UP
Listen in your browser - HTML5 player(in browser, HTML5)
Click here to listen with your own player(launches your MP3 player)

EPRZ 240630Z 19002KT 0200 R27/0250N FZFG NSC M14/M16 Q1036

EPRZ Flight Activity (Flightaware)

Listeners: 3 out of 1253 total

EPWW Radar: 134.175
EPWW Radar: 120.950
Rzeszow Delivery: 121.800
Rzeszow Tower: 126.800

EPWA Approach #1 (Archives)
Warsaw, Poland

Feed Status: UP
Listen in your browser - HTML5 player(in browser, HTML5)
Click here to listen with your own player(launches your MP3 player)

EPWA 240630Z 17005KT CAVOK M04/M07 Q1035 NOSIG

EPWA Flight Activity (Flightaware)

Listeners: 13 out of 1253 total

Warsaw Approach: 128.805

EPWA Director (Archives)
Warsaw, Poland

Feed Status: UP
Listen in your browser - HTML5 player(in browser, HTML5)
Click here to listen with your own player(launches your MP3 player)

EPWA 240630Z 17005KT CAVOK M04/M07 Q1035 NOSIG

EPWA Flight Activity (Flightaware)

Listeners: 0 out of 1253 total

Warsaw Director: 129.375

EPWA Ground (Archives)
Warsaw, Poland

Feed Status: UP
Listen in your browser - HTML5 player(in browser, HTML5)
Click here to listen with your own player(launches your MP3 player)

EPWA 240630Z 17005KT CAVOK M04/M07 Q1035 NOSIG

EPWA Flight Activity (Flightaware)

Listeners: 2 out of 1253 total

Warsaw Ground: 121.900

EPWA Tower (Archives)
Warsaw, Poland

Feed Status: UP
Listen in your browser - HTML5 player(in browser, HTML5)
Click here to listen with your own player(launches your MP3 player)

EPWA 240630Z 17005KT CAVOK M04/M07 Q1035 NOSIG

EPWA Flight Activity (Flightaware)

Listeners: 0 out of 1253 total

Warsaw Tower: 118.300

EPWR Twr/App (Archives)
Wroclaw, Poland

Feed Status: UP
Listen in your browser - HTML5 player(in browser, HTML5)
Click here to listen with your own player(launches your MP3 player)

EPPO 240630Z 19002KT 1200 R28/2000U BR OVC004 01/01 Q1034

EPPO Flight Activity (Flightaware)

Listeners: 0 out of 1253 total

Poznan Approach (South): 127.225

EPRZ Del/Twr/EPWW Radar (Archives)
Jasionka, Poland

Feed Status: UP
Listen in your browser - HTML5 player(in browser, HTML5)
Click here to listen with your own player(launches your MP3 player)

EPRZ 240630Z 19002KT 0200 R27/0250N FZFG NSC M14/M16 Q1036

EPRZ Flight Activity (Flightaware)

Listeners: 3 out of 1253 total

EPWW Radar: 134.175
EPWW Radar: 120.950
Rzeszow Delivery: 121.800
Rzeszow Tower: 126.800

ESDF Gnd/Twr (Archives)
Ronneby, Sweden

Feed Status: UP
Listen in your browser - HTML5 player(in browser, HTML5)
Click here to listen with your own player(launches your MP3 player)

ESDF 240650Z 26008KT 9999 -DZ FEW008 BKN011 05/05 Q1028

ESDF Flight Activity (Flightaware)

Listeners: 0 out of 1253 total

Ronneby Ground: 121.850
Ronneby Tower: 119.200

ESDF Ronneby Control (Archives)
Ronneby, Sweden

Feed Status: UP
Listen in your browser - HTML5 player(in browser, HTML5)
Click here to listen with your own player(launches your MP3 player)

ESDF 240650Z 26008KT 9999 -DZ FEW008 BKN011 05/05 Q1028

ESDF Flight Activity (Flightaware)

Listeners: 2 out of 1253 total

Ronneby Control: 128.450

ESMQ Tower (Archives)
Kalmar, Sweden

Feed Status: UP
Listen in your browser - HTML5 player(in browser, HTML5)
Click here to listen with your own player(launches your MP3 player)

ESMQ 240650Z 26012KT 9999 OVC013 06/03 Q1026

ESMQ Flight Activity (Flightaware)

Listeners: 1 out of 1253 total

Kalmar Tower: 130.805

ESMS Radar (Archives)
Svedala, Sweden

Feed Status: UP
Listen in your browser - HTML5 player(in browser, HTML5)
Click here to listen with your own player(launches your MP3 player)

ESMS 240650Z 26010KT 3900 BR OVC004 05/04 Q1030

ESMS Flight Activity (Flightaware)

Listeners: 1 out of 1253 total

Sweden Control (Sector L, Malmo): 134.980

ESMS Tower (Archives)
Svedala, Sweden

Feed Status: UP
Listen in your browser - HTML5 player(in browser, HTML5)
Click here to listen with your own player(launches your MP3 player)

ESMS 240650Z 26010KT 3900 BR OVC004 05/04 Q1030

ESMS Flight Activity (Flightaware)

Listeners: 0 out of 1253 total

Malmo Tower: 118.800

ESOE Tower/Control (Archives)
Orebro, Sweden

Feed Status: UP
Listen in your browser - HTML5 player(in browser, HTML5)
Click here to listen with your own player(launches your MP3 player)

ESOE 240650Z 24016KT 190V280 9999 OVC013 06/03 Q1019

ESOE Flight Activity (Flightaware)

Listeners: 0 out of 1253 total

Orebro Tower: 120.275
Orebro Tower: 120.280
Sweden Control: 131.125
Sweden Control (aircraft only): 131.125

ESOW Twr/CTAF/Control (Archives)
Stockholm, Sweden

Feed Status: UP
Listen in your browser - HTML5 player(in browser, HTML5)
Click here to listen with your own player(launches your MP3 player)

ESOW 240650Z 22012KT 9999 BKN013 04/01 Q1018

ESOW Flight Activity (Flightaware)

Listeners: 0 out of 1253 total

Arlanda Approach: 123.750
Arlanda Approach: 126.655
Arlanda Approach: 130.325
Arlanda Departure: 124.100
Arlanda Tower: 118.505
Arlanda Tower: 128.725
Enkoping/Langtora: 123.525
Eskilstuna: 126.850
Frolunda: 123.400
Johannisberg CTAF: 123.650
Ska Edeby: 123.350
Stockholm Control: 120.155
Stockholm Control: 118.405
Stockholm Control: 118.280
Sweden Control: 133.260
Sweden Control: 129.175
Sweden Control: 131.130
Uppsala Tower: 119.200
Uppsala/Sundbro: 123.350
Vasteras Control: 125.955
Vasteras Tower: 130.600

ESPA Twr/Control (Archives)
Lulea, Sweden

Feed Status: UP
Listen in your browser - HTML5 player(in browser, HTML5)
Click here to listen with your own player(launches your MP3 player)

ESPA 240650Z 21013KT CAVOK 03/M00 Q0998

ESPA Flight Activity (Flightaware)

Listeners: 1 out of 1253 total

Emergency/Guard: 121.500
Kallax Control: 125.450
Kallax Tower: 128.200
Sweden Control North: 131.050

ESSG Misc (Archives)
Ludvika, Sweden

Feed Status: UP
Listen in your browser - HTML5 player(in browser, HTML5)
Click here to listen with your own player(launches your MP3 player)

ESSG Flight Activity (Flightaware)

Listeners: 0 out of 1253 total

Borlange Tower: 127.305
Club Frequency: 123.375
Club Frequency: 123.450
Club Frequency: 123.425
Club Frequency: 123.525
Club Frequency: 123.350
Club Frequency: 123.300
Club Frequency: 123.200
Club Frequency: 123.550
Club Frequency: 123.600
Club Frequency: 123.650
Emergency/Guard: 121.500
Hagfors Airport: 122.230
Karlstad Airport: 119.455
Ludvika Club Freq: 123.150
Mora Airport: 119.055
Orebro Airport: 120.280
Orsa Club Frequency: 123.400
Orsa Club Frequency: 123.500
Scandinavian Mountains Airport: 124.460
Search and Rescue: 123.100
Sweden Control: 131.055
Sweden Control: 131.125
Sweden Control: 131.155
Sweden Control: 132.765
Sweden Control: 131.130
Sweden Control: 129.180
Sweden Control: 128.630
Sweden Control: 132.150
Torsby Airport: 122.055
Vasteras Control: 125.955

ESSL Twr/App/Control (Archives)
Linkoping, Sweden

Feed Status: UP
Listen in your browser - HTML5 player(in browser, HTML5)
Click here to listen with your own player(launches your MP3 player)

ESSL 240650Z 26014KT 200V290 9999 BKN017 06/02 Q1022

ESSL Flight Activity (Flightaware)

Listeners: 1 out of 1253 total

Emergency/Guard: 121.500
Linkoping Tower: 118.800
Linkoping Tower (Secondary): 123.400
Ostgota Control: 127.350
Ostgota Control: 126.400
Ostgota Control: 135.850
Ostgota Control: 132.950
Ostgota Control: 128.700
Ostgota Control (Malmen Sector): 133.100
Ostgota Control/Sweden Control: 118.400

ESSP Twr/App/Control (Archives)
Norrkoping, Sweden

Feed Status: UP
Listen in your browser - HTML5 player(in browser, HTML5)
Click here to listen with your own player(launches your MP3 player)

ESSP 240650Z 26014KT 230V290 9999 OVC018 05/02 Q1021

ESSP Flight Activity (Flightaware)

Listeners: 0 out of 1253 total

Kungsangen Tower: 120.355
Osgota Approach/Departure: 132.955
Sweden Control: 118.280
Sweden Control: 118.405
Sweden Control: 134.455

ESVQ CTAF
Koping, Sweden

Feed Status: DOWN
Offline since: 2021-09-28 07:56:21 UTC

Koping CTAF: 123.150

EVRA Approach (Archives)
Riga, Latvia

Feed Status: UP
Listen in your browser - HTML5 player(in browser, HTML5)
Click here to listen with your own player(launches your MP3 player)

EVRA 240650Z 19011KT 9999 OVC009 M01/M03 Q1028 NOSIG

EVRA Flight Activity (Flightaware)

Listeners: 3 out of 1253 total

Riga Approach: 129.925

EVRA CTAF (Archives)
Riga, Latvia

Feed Status: UP
Listen in your browser - HTML5 player(in browser, HTML5)
Click here to listen with your own player(launches your MP3 player)

EVRA 240650Z 19011KT 9999 OVC009 M01/M03 Q1028 NOSIG

EVRA Flight Activity (Flightaware)

Listeners: 3 out of 1253 total

Riga Approach (evenings): 134.850
Riga CTAF: 123.950

EVRA FIC (Archives)
Riga, Latvia

Feed Status: UP
Listen in your browser - HTML5 player(in browser, HTML5)
Click here to listen with your own player(launches your MP3 player)

EVRA 240650Z 19011KT 9999 OVC009 M01/M03 Q1028 NOSIG

EVRA Flight Activity (Flightaware)

Listeners: 3 out of 1253 total

Riga FIC: 120.225

EVRA Tower/Guard (Archives)
Riga, Latvia

Feed Status: UP
Listen in your browser - HTML5 player(in browser, HTML5)
Click here to listen with your own player(launches your MP3 player)

EVRA 240650Z 19011KT 9999 OVC009 M01/M03 Q1028 NOSIG

EVRA Flight Activity (Flightaware)

Listeners: 3 out of 1253 total

Emergency/Guard: 121.500
Riga Tower: 118.100

EYVI Twr/App/Misc (Archives)
Vilnius, Lithuania

Feed Status: UP
Listen in your browser - HTML5 player(in browser, HTML5)
Click here to listen with your own player(launches your MP3 player)

EYVI 240650Z 17008KT 9999 BKN046 M11/M12 Q1033 NOSIG

EYVI Flight Activity (Flightaware)

Listeners: 4 out of 1253 total

Emergency / GUARD: 121.500
FlyLAL, AirBaltic transit services: 131.900
FlyLAL, AirBaltic transit services: 131.600
FlyLAL, AirBaltic transit services: 131.500
Kaunas Approach (EYKA): 124.200
Vilnius Approach: 120.700
Vilnius Control: 132.275
Vilnius Control: 133.425
Vilnius Control: 133.300
Vilnius FIS: 123.850
Vilnius Tower: 118.200
Zokniai A/G (mil): 122.775

LBBG Twr/App (Archives)
Burgas, Bulgaria

Feed Status: UP
Listen in your browser - HTML5 player(in browser, HTML5)
Click here to listen with your own player(launches your MP3 player)

LBBG 240630Z 31006KT 240V010 9999 SCT024 M03/M06 Q1027 NOSIG

LBBG Flight Activity (Flightaware)

Listeners: 0 out of 1253 total

Burgas Approach: 125.100
Burgas Tower: 118.000

LBPD Tower (Archives)
Plovdiv, Bulgaria

Feed Status: UP
Listen in your browser - HTML5 player(in browser, HTML5)
Click here to listen with your own player(launches your MP3 player)

LBSF 240630Z VRB02KT 9999 OVC032 M06/M10 Q1026 NOSIG

LBSF Flight Activity (Flightaware)

Listeners: 0 out of 1253 total

Plovdiv Tower: 125.500
Plovdiv Tower: 133.600

LBSF ATIS (Archives)
Sofia, Bulgaria

Feed Status: UP
Listen in your browser - HTML5 player(in browser, HTML5)
Click here to listen with your own player(launches your MP3 player)

LBSF 240630Z VRB02KT 9999 OVC032 M06/M10 Q1026 NOSIG

LBSF Flight Activity (Flightaware)

Listeners: 0 out of 1253 total

Sofia ATIS: 126.680

LBSF Sofia Control East (Archives)
Sofia, Bulgaria

Feed Status: UP
Listen in your browser - HTML5 player(in browser, HTML5)
Click here to listen with your own player(launches your MP3 player)

LBSF 240630Z VRB02KT 9999 OVC032 M06/M10 Q1026 NOSIG

LBSF Flight Activity (Flightaware)

Listeners: 1 out of 1253 total

Sofia Control (East/Middle Sector): 129.100
Sofia Control (Varna Sector): 134.700

LBSF Twr/App #1 (Archives)
Sofia, Bulgaria

Feed Status: UP
Listen in your browser - HTML5 player(in browser, HTML5)
Click here to listen with your own player(launches your MP3 player)

LBSF 240630Z VRB02KT 9999 OVC032 M06/M10 Q1026 NOSIG

LBSF Flight Activity (Flightaware)

Listeners: 0 out of 1253 total

Sofia Approach: 123.700
Sofia Approach: 129.900
Sofia Tower: 118.100
Sofia Tower: 120.200

LBSF Twr/App #2 (Archives)
Sofia, Bulgaria

Feed Status: UP
Listen in your browser - HTML5 player(in browser, HTML5)
Click here to listen with your own player(launches your MP3 player)

LBSF 240630Z VRB02KT 9999 OVC032 M06/M10 Q1026 NOSIG

LBSF Flight Activity (Flightaware)

Listeners: 1 out of 1253 total

Sofia Approach: 123.700
Sofia Tower: 118.100

LBWN Tower/Approach
Varna, Bulgaria

Feed Status: DOWN
Offline since: 2021-12-02 23:55:39 UTC

LBWN 240630Z 01018KT 9999 FEW016 M03/M06 Q1026 TEMPO 36020G30KT

Varna Approach: 121.000
Varna Tower: 119.500

Bordeaux Control (Archives)
Bordeaux, France

Feed Status: UP
Listen in your browser - HTML5 player(in browser, HTML5)
Click here to listen with your own player(launches your MP3 player)

LFBD 240630Z AUTO 10004KT 8000 NSC M00/M01 Q1027 TEMPO 3000 BR

LFBD Flight Activity (Flightaware)

Listeners: 5 out of 1253 total

Air to Air: 123.450
Bordeaux Control BN FL<300: 127.675
Bordeaux Control L3 FL>300: 134.250
Bordeaux Control R2 FL>300: 133.575
Emergency/Guard: 121.500

LFBD Aquitane Approach
Bordeaux, France

Feed Status: DOWN
Offline since: 2022-01-20 08:46:23 UTC

LFBD 240630Z AUTO 10004KT 8000 NSC M00/M01 Q1027 TEMPO 3000 BR

Aquitane Approach: 129.875

LFBD ATIS
Bordeaux, France

Feed Status: DOWN
Offline since: 2022-01-20 08:46:23 UTC

LFBD 240630Z AUTO 10004KT 8000 NSC M00/M01 Q1027 TEMPO 3000 BR

Merignac ATIS: 131.150

LFBD Bordeaux Control Sector X1
Bordeaux, France

Feed Status: DOWN
Offline since: 2022-01-20 08:46:23 UTC

LFBD 240630Z AUTO 10004KT 8000 NSC M00/M01 Q1027 TEMPO 3000 BR

Bordeaux Control (Sector X1): 118.425

LFBD Ground (Archives)
Bordeaux, France

Feed Status: UP
Listen in your browser - HTML5 player(in browser, HTML5)
Click here to listen with your own player(launches your MP3 player)

LFBD 240630Z AUTO 10004KT 8000 NSC M00/M01 Q1027 TEMPO 3000 BR

LFBD Flight Activity (Flightaware)

Listeners: 2 out of 1253 total

Merignac Ground: 121.900

LFBD Tower
Bordeaux, France

Feed Status: DOWN
Offline since: 2022-01-20 08:46:23 UTC

LFBD 240630Z AUTO 10004KT 8000 NSC M00/M01 Q1027 TEMPO 3000 BR

Merignac Tower: 118.300

Bordeaux Control (Archives)
Angouleme, France

Feed Status: UP
Listen in your browser - HTML5 player(in browser, HTML5)
Click here to listen with your own player(launches your MP3 player)

LFBD 240630Z AUTO 10004KT 8000 NSC M00/M01 Q1027 TEMPO 3000 BR

LFBD Flight Activity (Flightaware)

Listeners: 5 out of 1253 total

Air to Air: 123.450
Bordeaux Control BN FL<300: 127.675
Bordeaux Control L3 FL>300: 134.250
Bordeaux Control R2 FL>300: 133.575
Emergency/Guard: 121.500

LFLL Tower (Archives)
Lyon, France

Feed Status: UP
Listen in your browser - HTML5 player(in browser, HTML5)
Click here to listen with your own player(launches your MP3 player)

LFLL 240630Z 13004KT 0500 R35L/0550N R17R/0900U R35R/0600N R17L/P2000 FZFG SCT001 M03/M03 Q1030 TEMPO 0400 FZFG VV///

LFLL Flight Activity (Flightaware)

Listeners: 3 out of 1253 total

Lyon Tower: 120.450

Lyon FIS (Archives)
Lyon, France

Feed Status: UP
Listen in your browser - HTML5 player(in browser, HTML5)
Click here to listen with your own player(launches your MP3 player)

LFLL 240630Z 13004KT 0500 R35L/0550N R17R/0900U R35R/0600N R17L/P2000 FZFG SCT001 M03/M03 Q1030 TEMPO 0400 FZFG VV///

LFLL Flight Activity (Flightaware)

Listeners: 0 out of 1253 total

Lyon FIS: 135.200

LFLP Twr/LFLB App (Archives)
Annecy, France

Feed Status: UP
Listen in your browser - HTML5 player(in browser, HTML5)
Click here to listen with your own player(launches your MP3 player)

LFLP 240630Z AUTO 35001KT 5000 BR NSC M05/M06 Q1031 TEMPO BKN014

LFLP Flight Activity (Flightaware)

Listeners: 2 out of 1253 total

Annecy Tower: 118.200
Chambery Approach: 121.205
Chambery Info: 123.700

LFLY Tower (Archives)
Bron, France

Feed Status: UP
Listen in your browser - HTML5 player(in browser, HTML5)
Click here to listen with your own player(launches your MP3 player)

LFLY 240630Z AUTO 16002KT 5000 BR NSC M02/M03 Q1031 TEMPO 0400 FZFG VV///

LFLY Flight Activity (Flightaware)

Listeners: 4 out of 1253 total

Lyon-Bron Tower: 118.100

Lyon FIS (Archives)
Bron, France

Feed Status: UP
Listen in your browser - HTML5 player(in browser, HTML5)
Click here to listen with your own player(launches your MP3 player)

LFLL 240630Z 13004KT 0500 R35L/0550N R17R/0900U R35R/0600N R17L/P2000 FZFG SCT001 M03/M03 Q1030 TEMPO 0400 FZFG VV///

LFLL Flight Activity (Flightaware)

Listeners: 0 out of 1253 total

Lyon FIS: 135.200

LFMD Ground/Tower (Archives)
Cannes, France

Feed Status: UP
Listen in your browser - HTML5 player(in browser, HTML5)
Click here to listen with your own player(launches your MP3 player)

LFMD 240630Z AUTO 36005KT CAVOK 02/01 Q1030 NOSIG

LFMD Flight Activity (Flightaware)

Listeners: 1 out of 1253 total

Cannes Ground: 121.805
Cannes Tower: 118.625

LFMN Approach (Archives)
Nice, France

Feed Status: UP
Listen in your browser - HTML5 player(in browser, HTML5)
Click here to listen with your own player(launches your MP3 player)

LFMN 240630Z 33014KT CAVOK 05/M01 Q1029 NOSIG

LFMN Flight Activity (Flightaware)

Listeners: 2 out of 1253 total

Nice Approach: 128.205

LFMN Control (High) (Archives)
Nice, France

Feed Status: UP
Listen in your browser - HTML5 player(in browser, HTML5)
Click here to listen with your own player(launches your MP3 player)

LFMN 240630Z 33014KT CAVOK 05/M01 Q1029 NOSIG

LFMN Flight Activity (Flightaware)

Listeners: 0 out of 1253 total

Marseille Control Sector K1 (FL245-FL305): 126.780

LFMN FIS/Approach (Archives)
Nice, France

Feed Status: UP
Listen in your browser - HTML5 player(in browser, HTML5)
Click here to listen with your own player(launches your MP3 player)

LFMN 240630Z 33014KT CAVOK 05/M01 Q1029 NOSIG

LFMN Flight Activity (Flightaware)

Listeners: 0 out of 1253 total

Nice FIS/Approach (TMA4 NICE 2500ft - FL115): 120.850

LFMN Ground/Tower (Archives)
Nice, France

Feed Status: UP
Listen in your browser - HTML5 player(in browser, HTML5)
Click here to listen with your own player(launches your MP3 player)

LFMN 240630Z 33014KT CAVOK 05/M01 Q1029 NOSIG

LFMN Flight Activity (Flightaware)

Listeners: 0 out of 1253 total

Nice Ground: 121.700
Nice Tower: 118.700

LFPG Tower (Archives)
Paris, France

Feed Status: UP
Listen in your browser - HTML5 player(in browser, HTML5)
Click here to listen with your own player(launches your MP3 player)

LFPG 240630Z 07008KT 7000 NSC M02/M02 Q1031 NOSIG

LFPG Flight Activity (Flightaware)

Listeners: 5 out of 1253 total

De Gaulle Tower: 120.900
De Gaulle Tower: 119.250

LFPO Approach (Archives)
Paris, France

Feed Status: UP
Listen in your browser - HTML5 player(in browser, HTML5)
Click here to listen with your own player(launches your MP3 player)

LFPO 240630Z 05003KT CAVOK M01/M02 Q1031 NOSIG

LFPO Flight Activity (Flightaware)

Listeners: 0 out of 1253 total

Orly Approach: 124.450
Orly Approach: 118.850
Orly Approach: 120.850
Orly Approach: 123.875

LFPO Departure (Archives)
Paris, France

Feed Status: UP
Listen in your browser - HTML5 player(in browser, HTML5)
Click here to listen with your own player(launches your MP3 player)

LFPO 240630Z 05003KT CAVOK M01/M02 Q1031 NOSIG

LFPO Flight Activity (Flightaware)

Listeners: 2 out of 1253 total

Orly Departure: 127.750

LFPO Tower (Archives)
Paris, France

Feed Status: UP
Listen in your browser - HTML5 player(in browser, HTML5)
Click here to listen with your own player(launches your MP3 player)

LFPO 240630Z 05003KT CAVOK M01/M02 Q1031 NOSIG

LFPO Flight Activity (Flightaware)

Listeners: 5 out of 1253 total

Orly Tower: 120.500
Orly Tower: 118.700

LFPZ ATIS
Villacoublay, France

Feed Status: DOWN
Offline since: 2022-01-14 17:24:39 UTC

St. Cyr-L'Ecole ATIS: 131.025

LFPZ Tower
Villacoublay, France

Feed Status: DOWN
Offline since: 2021-10-19 10:34:39 UTC

St. Cyr-L'Ecole Tower: 118.000

LHBP Approach (Archives)
Budapest, Hungary

Feed Status: UP
Listen in your browser - HTML5 player(in browser, HTML5)
Click here to listen with your own player(launches your MP3 player)

LHBP 240630Z 02005KT CAVOK M09/M11 Q1035 NOSIG

LHBP Flight Activity (Flightaware)

Listeners: 5 out of 1253 total

Budapest Approach: 122.975
Budapest Approach (Upper): 123.860

LHBP Approach (Director) (Archives)
Budapest, Hungary

Feed Status: UP
Listen in your browser - HTML5 player(in browser, HTML5)
Click here to listen with your own player(launches your MP3 player)

LHBP 240630Z 02005KT CAVOK M09/M11 Q1035 NOSIG

LHBP Flight Activity (Flightaware)

Listeners: 0 out of 1253 total

Budapest Director: 119.510

LHBP ATIS (Archives)
Budapest, Hungary

Feed Status: UP
Listen in your browser - HTML5 player(in browser, HTML5)
Click here to listen with your own player(launches your MP3 player)

LHBP 240630Z 02005KT CAVOK M09/M11 Q1035 NOSIG

LHBP Flight Activity (Flightaware)

Listeners: 0 out of 1253 total

Budapest ATIS: 132.380

LHBP Clearance Delivery (Archives)
Budapest, Hungary

Feed Status: UP
Listen in your browser - HTML5 player(in browser, HTML5)
Click here to listen with your own player(launches your MP3 player)

LHBP 240630Z 02005KT CAVOK M09/M11 Q1035 NOSIG

LHBP Flight Activity (Flightaware)

Listeners: 0 out of 1253 total

Budapest Clearance Delivery: 134.540

LHBP Ground (Archives)
Budapest, Hungary

Feed Status: UP
Listen in your browser - HTML5 player(in browser, HTML5)
Click here to listen with your own player(launches your MP3 player)

LHBP 240630Z 02005KT CAVOK M09/M11 Q1035 NOSIG

LHBP Flight Activity (Flightaware)

Listeners: 0 out of 1253 total

Budapest Ground: 121.910

LHBP Info (Archives)
Budapest, Hungary

Feed Status: UP
Listen in your browser - HTML5 player(in browser, HTML5)
Click here to listen with your own player(launches your MP3 player)

LHBP 240630Z 02005KT CAVOK M09/M11 Q1035 NOSIG

LHBP Flight Activity (Flightaware)

Listeners: 1 out of 1253 total

Budapest Info: 119.350

LHBP Tower (Archives)
Budapest, Hungary

Feed Status: UP
Listen in your browser - HTML5 player(in browser, HTML5)
Click here to listen with your own player(launches your MP3 player)

LHBP 240630Z 02005KT CAVOK M09/M11 Q1035 NOSIG

LHBP Flight Activity (Flightaware)

Listeners: 2 out of 1253 total

Budapest Tower: 118.100

LHBP Twr/Info (Archives)
Budapest, Hungary

Feed Status: UP
Listen in your browser - HTML5 player(in browser, HTML5)
Click here to listen with your own player(launches your MP3 player)

LHBP 240630Z 02005KT CAVOK M09/M11 Q1035 NOSIG

LHBP Flight Activity (Flightaware)

Listeners: 0 out of 1253 total

Budapest Info: 119.350
Budapest Tower: 118.100

LHCC Control (East/West) (Archives)
Budapest, Hungary

Feed Status: UP
Listen in your browser - HTML5 player(in browser, HTML5)
Click here to listen with your own player(launches your MP3 player)

LHBP 240630Z 02005KT CAVOK M09/M11 Q1035 NOSIG

LHBP Flight Activity (Flightaware)

Listeners: 0 out of 1253 total

Budapest Control (East Low Sector): 120.375
Budapest Control (West Low Sector): 133.200

LHDC Info/Tower (Archives)
Debrecen, Hungary

Feed Status: UP
Listen in your browser - HTML5 player(in browser, HTML5)
Click here to listen with your own player(launches your MP3 player)

LHDC 240615Z AUTO 02007KT 9000 NCD M07/M10 Q1034 NOSIG

LHDC Flight Activity (Flightaware)

Listeners: 0 out of 1253 total

Debrecen Info/Tower: 125.900

LHEM CTAF (Archives)
Esztergom, Hungary

Feed Status: UP
Listen in your browser - HTML5 player(in browser, HTML5)
Click here to listen with your own player(launches your MP3 player)

LHEM Flight Activity (Flightaware)

Listeners: 0 out of 1253 total

Esztergom CTAF: 126.850

LHOY CTAF
Ocseny, Hungary

Feed Status: DOWN
Offline since: 2022-01-07 14:33:22 UTC

Ocseny CTAF: 122.830

LHPR Info/AFIS (Archives)
Gyor, Hungary

Feed Status: UP
Listen in your browser - HTML5 player(in browser, HTML5)
Click here to listen with your own player(launches your MP3 player)

LHPR 240615Z AUTO 15006KT CAVOK M08/M09 Q1035 NOSIG

LHPR Flight Activity (Flightaware)

Listeners: 1 out of 1253 total

Gyor AFIS: 129.910

LJLJ Info (Archives)
Ljubljana, Slovenia

Feed Status: UP
Listen in your browser - HTML5 player(in browser, HTML5)
Click here to listen with your own player(launches your MP3 player)

LJLJ 240630Z VRB01KT 9999 OVC018 M02/M02 Q1031 NOSIG

LJLJ Flight Activity (Flightaware)

Listeners: 0 out of 1253 total

Ljubljana Info: 118.475

LJLJ Radar (Archives)
Ljubljana, Slovenia

Feed Status: UP
Listen in your browser - HTML5 player(in browser, HTML5)
Click here to listen with your own player(launches your MP3 player)

LJLJ 240630Z VRB01KT 9999 OVC018 M02/M02 Q1031 NOSIG

LJLJ Flight Activity (Flightaware)

Listeners: 2 out of 1253 total

Ljubljana Approach: 135.275

LJLJ Tower (Archives)
Ljubljana, Slovenia

Feed Status: UP
Listen in your browser - HTML5 player(in browser, HTML5)
Click here to listen with your own player(launches your MP3 player)

LJLJ 240630Z VRB01KT 9999 OVC018 M02/M02 Q1031 NOSIG

LJLJ Flight Activity (Flightaware)

Listeners: 0 out of 1253 total

Ljubljana Tower: 118.000

LJMB Tower (Archives)
Maribor, Slovenia

Feed Status: UP
Listen in your browser - HTML5 player(in browser, HTML5)
Click here to listen with your own player(launches your MP3 player)

LJMB 240630Z 01003KT 9999 SCT010 OVC020 M01/M02 Q1033

LJMB Flight Activity (Flightaware)

Listeners: 0 out of 1253 total

Maribor Tower/Approach: 119.200

LJMS CTAF
Murska Sobota, Slovenia

Feed Status: DOWN
Offline since: 2021-12-16 18:59:06 UTC

Murska Sobota Aerodrome Radio: 123.500

LKPM Tower (Archives)
Pribram, Czech Republic

Feed Status: UP
Listen in your browser - HTML5 player(in browser, HTML5)
Click here to listen with your own player(launches your MP3 player)

LKPM Flight Activity (Flightaware)

Listeners: 0 out of 1253 total

Pribram Tower: 118.755

LKAA FIR (High) (Archives)
Prague, Czech Republic

Feed Status: UP
Listen in your browser - HTML5 player(in browser, HTML5)
Click here to listen with your own player(launches your MP3 player)

LKAA Flight Activity (Flightaware)

Listeners: 1 out of 1253 total

LKAA FIR Sector West High / Praha Radar : 132.065

LKAA FIR (Low) (Archives)
Prague, Czech Republic

Feed Status: UP
Listen in your browser - HTML5 player(in browser, HTML5)
Click here to listen with your own player(launches your MP3 player)

LKAA Flight Activity (Flightaware)

Listeners: 0 out of 1253 total

LKAA FIR Sector West Low / Praha Radar: 120.275

LKPR Approach (Archives)
Prague, Czech Republic

Feed Status: UP
Listen in your browser - HTML5 player(in browser, HTML5)
Click here to listen with your own player(launches your MP3 player)

LKPR 240630Z VRB01KT 9999 FEW009 BKN013 OVC019 02/01 Q1033 NOSIG

LKPR Flight Activity (Flightaware)

Listeners: 2 out of 1253 total

Prague Approach/Radar: 127.580

LKPR Clearance Del (Archives)
Prague, Czech Republic

Feed Status: UP
Listen in your browser - HTML5 player(in browser, HTML5)
Click here to listen with your own player(launches your MP3 player)

LKPR 240630Z VRB01KT 9999 FEW009 BKN013 OVC019 02/01 Q1033 NOSIG

LKPR Flight Activity (Flightaware)

Listeners: 0 out of 1253 total

Prague/Ruzyne Clearance Delivery: 120.060

LKPR Director/Ruzyne Radar (Archives)
Prague, Czech Republic

Feed Status: UP
Listen in your browser - HTML5 player(in browser, HTML5)
Click here to listen with your own player(launches your MP3 player)

LKPR 240630Z VRB01KT 9999 FEW009 BKN013 OVC019 02/01 Q1033 NOSIG

LKPR Flight Activity (Flightaware)

Listeners: 2 out of 1253 total

Prague Director/Ruzyne Radar: 119.010

LKPR Ground (Archives)
Prague, Czech Republic

Feed Status: UP
Listen in your browser - HTML5 player(in browser, HTML5)
Click here to listen with your own player(launches your MP3 player)

LKPR 240630Z VRB01KT 9999 FEW009 BKN013 OVC019 02/01 Q1033 NOSIG

LKPR Flight Activity (Flightaware)

Listeners: 1 out of 1253 total

Prague/Ruzyne Ground: 121.910

LKPR Tower (Archives)
Prague, Czech Republic

Feed Status: UP
Listen in your browser - HTML5 player(in browser, HTML5)
Click here to listen with your own player(launches your MP3 player)

LKPR 240630Z VRB01KT 9999 FEW009 BKN013 OVC019 02/01 Q1033 NOSIG

LKPR Flight Activity (Flightaware)

Listeners: 3 out of 1253 total

Prague/Ruzyne Tower: 134.560

LKTB Gnd/Twr/Radar (Archives)
Brno, Czech Republic

Feed Status: UP
Listen in your browser - HTML5 player(in browser, HTML5)
Click here to listen with your own player(launches your MP3 player)

LKTB 240630Z 06005KT 9999 BKN040 M01/M03 Q1033 NOSIG

LKTB Flight Activity (Flightaware)

Listeners: 0 out of 1253 total

Brno Ground: 125.430
Brno Handling: 131.800
Brno Tower: 119.605
Praha Radar (Approach): 127.350

LMML GndTwr/App/Control (Archives)
Luqa, Malta

Feed Status: UP
Listen in your browser - HTML5 player(in browser, HTML5)
Click here to listen with your own player(launches your MP3 player)

LMML 240645Z 30008KT CAVOK 08/04 Q1025 NOSIG

LMML Flight Activity (Flightaware)

Listeners: 1 out of 1253 total

Emergency/Guard: 121.500
Luqa Ground: 121.600
Luqa Radar: 128.150
Luqa Tower: 135.100
Malta Radar - East (Primary): 122.775
Malta Radar - East (Secondary): 123.625
Malta Radar - UHF: 284.500
Malta Radar - West (Primary): 130.975
Malta Radar - West (Secondary): 127.525

LPCS Tower (Archives)
Cascais, Portugal

Feed Status: UP
Listen in your browser - HTML5 player(in browser, HTML5)
Click here to listen with your own player(launches your MP3 player)


LPCS Flight Activity (Flightaware)

Listeners: 0 out of 1253 total

Cascais Tower: 120.305

LPMA App/LPPC Center
Madeira, Portugal

Feed Status: DOWN
Offline since: 2022-01-19 12:22:39 UTC

Lisboa Control (Madeira Sector): 132.255
Madeira Approach: 119.605

LPMA Approach (Archives)
Madeira, Portugal

Feed Status: UP
Listen in your browser - HTML5 player(in browser, HTML5)
Click here to listen with your own player(launches your MP3 player)

LPMA 240630Z 36006KT 9999 SCT015 17/12 Q1022

LPMA Flight Activity (Flightaware)

Listeners: 1 out of 1253 total

Madeira Approach: 119.605

LPPR Approach #1 (Archives)
Porto, Portugal

Feed Status: UP
Listen in your browser - HTML5 player(in browser, HTML5)
Click here to listen with your own player(launches your MP3 player)

LPPR 240630Z 12006KT 080V160 CAVOK 04/02 Q1025

LPPR Flight Activity (Flightaware)

Listeners: 0 out of 1253 total

Porto Approach: 121.105

LPPT Approach (Archives)
Lisbon, Portugal

Feed Status: UP
Listen in your browser - HTML5 player(in browser, HTML5)
Click here to listen with your own player(launches your MP3 player)

LPPT 240630Z 03008KT CAVOK 07/04 Q1024

LPPT Flight Activity (Flightaware)

Listeners: 2 out of 1253 total

Lisbon Approach: 119.105

LRCL Twr/App #1 (Archives)
Cluj-Napoca, Romania

Feed Status: UP
Listen in your browser - HTML5 player(in browser, HTML5)
Click here to listen with your own player(launches your MP3 player)

LRCL 240630Z 08003KT CAVOK M15/M17 Q1033

LRCL Flight Activity (Flightaware)

Listeners: 1 out of 1253 total

Cluj Approach: 126.425
Cluj Tower: 118.705

LRCL Twr/App/ACC (Archives)
Cluj-Napoca, Romania

Feed Status: UP
Listen in your browser - HTML5 player(in browser, HTML5)
Click here to listen with your own player(launches your MP3 player)

LRCL 240630Z 08003KT CAVOK M15/M17 Q1033

LRCL Flight Activity (Flightaware)

Listeners: 0 out of 1253 total

Cluj Approach: 126.425
Cluj Tower: 118.705
Napoc ACC: 127.075

LROP Ground (Archives)
Bucharest, Romania

Feed Status: UP
Listen in your browser - HTML5 player(in browser, HTML5)
Click here to listen with your own player(launches your MP3 player)

LROP 240630Z 01005KT 9999 BKN030 M04/M11 Q1031 NOSIG

LROP Flight Activity (Flightaware)

Listeners: 1 out of 1253 total

Bucharest Ground: 121.855

LROP Radar (Archives)
Bucharest, Romania

Feed Status: UP
Listen in your browser - HTML5 player(in browser, HTML5)
Click here to listen with your own player(launches your MP3 player)

LROP 240630Z 01005KT 9999 BKN030 M04/M11 Q1031 NOSIG

LROP Flight Activity (Flightaware)

Listeners: 0 out of 1253 total

Bucharest Radar (Arges Mid sector): 121.175
Bucharest Radar (Arges Top Sector): 123.265
Bucharest Radar (Lomos Top Sector): 132.865

LROP Tower/Approach (Archives)
Bucharest, Romania

Feed Status: UP
Listen in your browser - HTML5 player(in browser, HTML5)
Click here to listen with your own player(launches your MP3 player)

LROP 240630Z 01005KT 9999 BKN030 M04/M11 Q1031 NOSIG

LROP Flight Activity (Flightaware)

Listeners: 0 out of 1253 total

Bucharest Approach: 119.415
Bucharest Director: 127.155
Bucharest Tower: 118.805

LROP Twr/App/Radar (Archives)
Bucharest, Romania

Feed Status: UP
Listen in your browser - HTML5 player(in browser, HTML5)
Click here to listen with your own player(launches your MP3 player)

LROP 240630Z 01005KT 9999 BKN030 M04/M11 Q1031 NOSIG

LROP Flight Activity (Flightaware)

Listeners: 4 out of 1253 total

Bucharest Approach: 119.415
Bucharest Director: 127.155
Bucharest Radar (Arges Mid sector): 121.175
Bucharest Radar (Arges Top Sector): 123.265
Bucharest Radar (Lomos Top Sector): 132.865
Bucharest Tower: 118.805

LRSB Tower/CTAF (Archives)
Sibiu, Romania

Feed Status: UP
Listen in your browser - HTML5 player(in browser, HTML5)
Click here to listen with your own player(launches your MP3 player)

LRSB 240630Z 00000KT CAVOK M16/M18 Q1031

LRSB Flight Activity (Flightaware)

Listeners: 0 out of 1253 total

Sibiu Tower: 121.305

LRTR Tower (Archives)
Timisoara, Romania

Feed Status: UP
Listen in your browser - HTML5 player(in browser, HTML5)
Click here to listen with your own player(launches your MP3 player)

LRTR 240630Z 05009KT CAVOK M08/M12 Q1033

LRTR Flight Activity (Flightaware)

Listeners: 0 out of 1253 total

ARAD Approach: 127.250
Timisoara Tower: 120.100

LSGG Arr/Dep (Archives)
Geneva, Switzerland

Feed Status: UP
Listen in your browser - HTML5 player(in browser, HTML5)
Click here to listen with your own player(launches your MP3 player)

LSGG 240650Z 07001KT 9999 FEW012 BKN016 02/M01 Q1031 NOSIG

LSGG Flight Activity (Flightaware)

Listeners: 1 out of 1253 total

Geneva Arrival: 136.255
Geneva Departure: 119.350

LSGG Arrival (Archives)
Geneva, Switzerland

Feed Status: UP
Listen in your browser - HTML5 player(in browser, HTML5)
Click here to listen with your own player(launches your MP3 player)

LSGG 240650Z 07001KT 9999 FEW012 BKN016 02/M01 Q1031 NOSIG

LSGG Flight Activity (Flightaware)

Listeners: 0 out of 1253 total

Geneva Arrival: 136.255

LSGG ATIS (Archives)
Geneva, Switzerland

Feed Status: UP
Listen in your browser - HTML5 player(in browser, HTML5)
Click here to listen with your own player(launches your MP3 player)

LSGG 240650Z 07001KT 9999 FEW012 BKN016 02/M01 Q1031 NOSIG

LSGG Flight Activity (Flightaware)

Listeners: 0 out of 1253 total

Geneva ATIS: 135.575

LSGG Delta (VFR) (Archives)
Geneva, Switzerland

Feed Status: UP
Listen in your browser - HTML5 player(in browser, HTML5)
Click here to listen with your own player(launches your MP3 player)

LSGG 240650Z 07001KT 9999 FEW012 BKN016 02/M01 Q1031 NOSIG

LSGG Flight Activity (Flightaware)

Listeners: 0 out of 1253 total

Geneva Delta (VFR): 119.175

LSGG Departure (Archives)
Geneva, Switzerland

Feed Status: UP
Listen in your browser - HTML5 player(in browser, HTML5)
Click here to listen with your own player(launches your MP3 player)

LSGG 240650Z 07001KT 9999 FEW012 BKN016 02/M01 Q1031 NOSIG

LSGG Flight Activity (Flightaware)

Listeners: 0 out of 1253 total

Geneva Departure: 119.530

LSGG Glider (Archives)
Geneva, Switzerland

Feed Status: UP
Listen in your browser - HTML5 player(in browser, HTML5)
Click here to listen with your own player(launches your MP3 player)

LSGG 240650Z 07001KT 9999 FEW012 BKN016 02/M01 Q1031 NOSIG

LSGG Flight Activity (Flightaware)

Listeners: 0 out of 1253 total

Geneva Glider: 124.750

LSGG Info (VFR) (Archives)
Geneva, Switzerland

Feed Status: UP
Listen in your browser - HTML5 player(in browser, HTML5)
Click here to listen with your own player(launches your MP3 player)

LSGG 240650Z 07001KT 9999 FEW012 BKN016 02/M01 Q1031 NOSIG

LSGG Flight Activity (Flightaware)

Listeners: 0 out of 1253 total

Geneva Information (VFR): 126.350

LSGG Radar Ini N/E/S (Archives)
Geneva, Switzerland

Feed Status: UP
Listen in your browser - HTML5 player(in browser, HTML5)
Click here to listen with your own player(launches your MP3 player)

LSGG 240650Z 07001KT 9999 FEW012 BKN016 02/M01 Q1031 NOSIG

LSGG Flight Activity (Flightaware)

Listeners: 0 out of 1253 total

Geneva Radar Initial East: 128.905
Geneva Radar Initial North: 134.030
Geneva Radar Initial South: 124.225

LSGG Radar Initial East (Archives)
Geneva, Switzerland

Feed Status: UP
Listen in your browser - HTML5 player(in browser, HTML5)
Click here to listen with your own player(launches your MP3 player)

LSGG 240650Z 07001KT 9999 FEW012 BKN016 02/M01 Q1031 NOSIG

LSGG Flight Activity (Flightaware)

Listeners: 0 out of 1253 total

Geneva Radar Initial East: 128.905

LSGG Radar Initial North (Archives)
Geneva, Switzerland

Feed Status: UP
Listen in your browser - HTML5 player(in browser, HTML5)
Click here to listen with your own player(launches your MP3 player)

LSGG 240650Z 07001KT 9999 FEW012 BKN016 02/M01 Q1031 NOSIG

LSGG Flight Activity (Flightaware)

Listeners: 0 out of 1253 total

Geneva Radar Initial North: 134.030

LSGG Radar Initial South (Archives)
Geneva, Switzerland

Feed Status: UP
Listen in your browser - HTML5 player(in browser, HTML5)
Click here to listen with your own player(launches your MP3 player)

LSGG 240650Z 07001KT 9999 FEW012 BKN016 02/M01 Q1031 NOSIG

LSGG Flight Activity (Flightaware)

Listeners: 0 out of 1253 total

Geneva Radar Initial South: 124.225

LSGG Radar L1 250-280 (Archives)
Geneva, Switzerland

Feed Status: UP
Listen in your browser - HTML5 player(in browser, HTML5)
Click here to listen with your own player(launches your MP3 player)

LSGG 240650Z 07001KT 9999 FEW012 BKN016 02/M01 Q1031 NOSIG

LSGG Flight Activity (Flightaware)

Listeners: 0 out of 1253 total

Geneva Radar L1 FL250-280: 134.850

LSGG Radar L1/L2/L3/L4/L5 (Archives)
Geneva, Switzerland

Feed Status: UP
Listen in your browser - HTML5 player(in browser, HTML5)
Click here to listen with your own player(launches your MP3 player)

LSGG 240650Z 07001KT 9999 FEW012 BKN016 02/M01 Q1031 NOSIG

LSGG Flight Activity (Flightaware)

Listeners: 0 out of 1253 total

Geneva Radar L1 FL250-280: 134.850
Geneva Radar L2 FL290-310: 126.050
Geneva Radar L3 FL320-330: 134.315
Geneva Radar L3 FL320-330: 136.015
Geneva Radar L5 FL360-370: 128.155

LSGG Radar L2 290-310 (Archives)
Geneva, Switzerland

Feed Status: UP
Listen in your browser - HTML5 player(in browser, HTML5)
Click here to listen with your own player(launches your MP3 player)

LSGG 240650Z 07001KT 9999 FEW012 BKN016 02/M01 Q1031 NOSIG

LSGG Flight Activity (Flightaware)

Listeners: 0 out of 1253 total

Geneva Radar L2 FL290-310: 126.050

LSGG Radar L3 320-330 (Archives)
Geneva, Switzerland

Feed Status: UP
Listen in your browser - HTML5 player(in browser, HTML5)
Click here to listen with your own player(launches your MP3 player)

LSGG 240650Z 07001KT 9999 FEW012 BKN016 02/M01 Q1031 NOSIG

LSGG Flight Activity (Flightaware)

Listeners: 0 out of 1253 total

Geneva Radar L3 FL320-330: 134.315

LSGG Radar L4 340-350 (Archives)
Geneva, Switzerland

Feed Status: UP
Listen in your browser - HTML5 player(in browser, HTML5)
Click here to listen with your own player(launches your MP3 player)

LSGG 240650Z 07001KT 9999 FEW012 BKN016 02/M01 Q1031 NOSIG

LSGG Flight Activity (Flightaware)

Listeners: 0 out of 1253 total

Geneva Radar L4 FL340-350: 136.015

LSGG Radar L5 360-370 (Archives)
Geneva, Switzerland

Feed Status: UP
Listen in your browser - HTML5 player(in browser, HTML5)
Click here to listen with your own player(launches your MP3 player)

LSGG 240650Z 07001KT 9999 FEW012 BKN016 02/M01 Q1031 NOSIG

LSGG Flight Activity (Flightaware)

Listeners: 0 out of 1253 total

Geneva Radar L5 FL360-370: 128.155

LSGS Gnd/Twr/App (Archives)
Sion, Switzerland

Feed Status: UP
Listen in your browser - HTML5 player(in browser, HTML5)
Click here to listen with your own player(launches your MP3 player)

LSGS 240650Z 09004KT 050V130 CAVOK M05/M07 Q1032

LSGS Flight Activity (Flightaware)

Listeners: 2 out of 1253 total

Alpine Jet Service Handling: 131.675
Sion Airport Handling: 131.475
Sion Approach (IFR ARR MIL OFF): 126.825
Sion Ground: 121.700
Sion Tower: 118.275

LSMD Tower (Archives)
Dubendorf, Switzerland

Feed Status: UP
Listen in your browser - HTML5 player(in browser, HTML5)
Click here to listen with your own player(launches your MP3 player)

LSZH 240650Z VRB01KT 9999 BKN010 00/M02 Q1032 TEMPO BKN009

LSZH Flight Activity (Flightaware)

Listeners: 4 out of 1253 total

Dubendorf Tower: 118.975

LSMP Arrival (Archives)
Payerne, Switzerland

Feed Status: UP
Listen in your browser - HTML5 player(in browser, HTML5)
Click here to listen with your own player(launches your MP3 player)

LSMP 240650Z AUTO VRB01KT 5000NDV OVC017 01/M01 Q1031 RMK

LSMP Flight Activity (Flightaware)

Listeners: 0 out of 1253 total

Payerne Arrival: 136.350

LSMP Arrival/Tower (Archives)
Payerne, Switzerland

Feed Status: UP
Listen in your browser - HTML5 player(in browser, HTML5)
Click here to listen with your own player(launches your MP3 player)

LSMP 240650Z AUTO VRB01KT 5000NDV OVC017 01/M01 Q1031 RMK

LSMP Flight Activity (Flightaware)

Listeners: 1 out of 1253 total

Payerne Arrival: 136.350
Payerne Tower: 128.675

LSMP Tower (Archives)
Payerne, Switzerland

Feed Status: UP
Listen in your browser - HTML5 player(in browser, HTML5)
Click here to listen with your own player(launches your MP3 player)

LSMP 240650Z AUTO VRB01KT 5000NDV OVC017 01/M01 Q1031 RMK

LSMP Flight Activity (Flightaware)

Listeners: 0 out of 1253 total

Payerne Tower: 128.675

LSPM AFIS (Archives)
Ambri, Switzerland

Feed Status: UP
Listen in your browser - HTML5 player(in browser, HTML5)
Click here to listen with your own player(launches your MP3 player)

LSPM Flight Activity (Flightaware)

Listeners: 0 out of 1253 total

Ambri AFIS: 118.525

LSZA Tower (Archives)
Agno, Switzerland

Feed Status: UP
Listen in your browser - HTML5 player(in browser, HTML5)
Click here to listen with your own player(launches your MP3 player)

LSZA 240650Z 35003KT 7000 NSC M04/M05 Q1030 NOSIG

LSZA Flight Activity (Flightaware)

Listeners: 0 out of 1253 total

Lugano Tower: 120.250

LSZB App/Dep (Archives)
Bern, Switzerland

Feed Status: UP
Listen in your browser - HTML5 player(in browser, HTML5)
Click here to listen with your own player(launches your MP3 player)

LSZB 240650Z 11004KT 8000 OVC011 M01/M02 Q1031 NOSIG

LSZB Flight Activity (Flightaware)

Listeners: 1 out of 1253 total

Bern Arrival/Departure: 127.325

LSZB ATIS (Archives)
Bern, Switzerland

Feed Status: UP
Listen in your browser - HTML5 player(in browser, HTML5)
Click here to listen with your own player(launches your MP3 player)

LSZB 240650Z 11004KT 8000 OVC011 M01/M02 Q1031 NOSIG

LSZB Flight Activity (Flightaware)

Listeners: 0 out of 1253 total

Bern ATIS: 125.125

LSZB Clearance Delivery (Archives)
Bern, Switzerland

Feed Status: UP
Listen in your browser - HTML5 player(in browser, HTML5)
Click here to listen with your own player(launches your MP3 player)

LSZB 240650Z 11004KT 8000 OVC011 M01/M02 Q1031 NOSIG

LSZB Flight Activity (Flightaware)

Listeners: 0 out of 1253 total

Bern Clearance Delivery: 121.905

LSZB Del/Twr/App/Dep (Archives)
Bern, Switzerland

Feed Status: UP
Listen in your browser - HTML5 player(in browser, HTML5)
Click here to listen with your own player(launches your MP3 player)

LSZB 240650Z 11004KT 8000 OVC011 M01/M02 Q1031 NOSIG

LSZB Flight Activity (Flightaware)

Listeners: 0 out of 1253 total

Bern Arrival/Departure: 127.325
Bern Clearance Delivery: 121.905
Bern Tower: 121.025

LSZB Tower (Archives)
Bern, Switzerland

Feed Status: UP
Listen in your browser - HTML5 player(in browser, HTML5)
Click here to listen with your own player(launches your MP3 player)

LSZB 240650Z 11004KT 8000 OVC011 M01/M02 Q1031 NOSIG

LSZB Flight Activity (Flightaware)

Listeners: 0 out of 1253 total

Bern Tower: 121.025

LSZB Twr/App/Dep (Archives)
Bern, Switzerland

Feed Status: UP
Listen in your browser - HTML5 player(in browser, HTML5)
Click here to listen with your own player(launches your MP3 player)

LSZB 240650Z 11004KT 8000 OVC011 M01/M02 Q1031 NOSIG

LSZB Flight Activity (Flightaware)

Listeners: 0 out of 1253 total

Bern Arrival/Departure: 127.325
Bern Tower: 121.025

LSZG Tower (Archives)
Grenchen, Switzerland

Feed Status: UP
Listen in your browser - HTML5 player(in browser, HTML5)
Click here to listen with your own player(launches your MP3 player)

LSZG 240650Z VRB01KT 9999 OVC014 01/M01 Q1031 NOSIG

LSZG Flight Activity (Flightaware)

Listeners: 0 out of 1253 total

Grenchen Tower: 120.100

LSZH Approach (East) (Archives)
Zurich, Switzerland

Feed Status: UP
Listen in your browser - HTML5 player(in browser, HTML5)
Click here to listen with your own player(launches your MP3 player)

LSZH 240650Z VRB01KT 9999 BKN010 00/M02 Q1032 TEMPO BKN009

LSZH Flight Activity (Flightaware)

Listeners: 1 out of 1253 total

Zurich Approach (East): 135.225

LSZH Apron (South) (Archives)
Zurich, Switzerland

Feed Status: UP
Listen in your browser - HTML5 player(in browser, HTML5)
Click here to listen with your own player(launches your MP3 player)

LSZH 240650Z VRB01KT 9999 BKN010 00/M02 Q1032 TEMPO BKN009

LSZH Flight Activity (Flightaware)

Listeners: 3 out of 1253 total

Zurich Apron (South): 121.755

LSZH Apron (West) (Archives)
Zurich, Switzerland

Feed Status: UP
Listen in your browser - HTML5 player(in browser, HTML5)
Click here to listen with your own player(launches your MP3 player)

LSZH 240650Z VRB01KT 9999 BKN010 00/M02 Q1032 TEMPO BKN009

LSZH Flight Activity (Flightaware)

Listeners: 2 out of 1253 total

Zurich Apron (West): 121.855

LSZH Clearance Delivery (Archives)
Zurich, Switzerland

Feed Status: UP
Listen in your browser - HTML5 player(in browser, HTML5)
Click here to listen with your own player(launches your MP3 player)

LSZH 240650Z VRB01KT 9999 BKN010 00/M02 Q1032 TEMPO BKN009

LSZH Flight Activity (Flightaware)

Listeners: 2 out of 1253 total

Zurich Clearance Delivery: 121.925

LSZH Ground (Archives)
Zurich, Switzerland

Feed Status: UP
Listen in your browser - HTML5 player(in browser, HTML5)
Click here to listen with your own player(launches your MP3 player)

LSZH 240650Z VRB01KT 9999 BKN010 00/M02 Q1032 TEMPO BKN009

LSZH Flight Activity (Flightaware)

Listeners: 0 out of 1253 total

Zurich Ground: 121.905

LSZH Radar 132.815 (Archives)
Zurich, Switzerland

Feed Status: UP
Listen in your browser - HTML5 player(in browser, HTML5)
Click here to listen with your own player(launches your MP3 player)

LSZH 240650Z VRB01KT 9999 BKN010 00/M02 Q1032 TEMPO BKN009

LSZH Flight Activity (Flightaware)

Listeners: 0 out of 1253 total

Zurich Radar: 132.815

LSZH Radar 133.050 (Archives)
Zurich, Switzerland

Feed Status: UP
Listen in your browser - HTML5 player(in browser, HTML5)
Click here to listen with your own player(launches your MP3 player)

LSZH 240650Z VRB01KT 9999 BKN010 00/M02 Q1032 TEMPO BKN009

LSZH Flight Activity (Flightaware)

Listeners: 0 out of 1253 total

Zurich Radar: 133.050

LSZH Radar 133.405 (Archives)
Zurich, Switzerland

Feed Status: UP
Listen in your browser - HTML5 player(in browser, HTML5)
Click here to listen with your own player(launches your MP3 player)

LSZH 240650Z VRB01KT 9999 BKN010 00/M02 Q1032 TEMPO BKN009

LSZH Flight Activity (Flightaware)

Listeners: 0 out of 1253 total

Zurich Radar: 133.405

LSZH Radar 133.690 (Archives)
Zurich, Switzerland

Feed Status: UP
Listen in your browser - HTML5 player(in browser, HTML5)
Click here to listen with your own player(launches your MP3 player)

LSZH 240650Z VRB01KT 9999 BKN010 00/M02 Q1032 TEMPO BKN009

LSZH Flight Activity (Flightaware)

Listeners: 0 out of 1253 total

Zurich Radar: 133.690

LSZH Radar 133.905 (Archives)
Zurich, Switzerland

Feed Status: UP
Listen in your browser - HTML5 player(in browser, HTML5)
Click here to listen with your own player(launches your MP3 player)

LSZH 240650Z VRB01KT 9999 BKN010 00/M02 Q1032 TEMPO BKN009

LSZH Flight Activity (Flightaware)

Listeners: 0 out of 1253 total

Zurich Radar (Below FL240 East): 133.905

LSZH Radar 134.605 (Archives)
Zurich, Switzerland

Feed Status: UP
Listen in your browser - HTML5 player(in browser, HTML5)
Click here to listen with your own player(launches your MP3 player)

LSZH 240650Z VRB01KT 9999 BKN010 00/M02 Q1032 TEMPO BKN009

LSZH Flight Activity (Flightaware)

Listeners: 0 out of 1253 total

Zurich Radar (FL330-350): 134.605

LSZH Radar 135.680 (Archives)
Zurich, Switzerland

Feed Status: UP
Listen in your browser - HTML5 player(in browser, HTML5)
Click here to listen with your own player(launches your MP3 player)

LSZH 240650Z VRB01KT 9999 BKN010 00/M02 Q1032 TEMPO BKN009

LSZH Flight Activity (Flightaware)

Listeners: 1 out of 1253 total


LSZH Radar 136.155 (Archives)
Zurich, Switzerland

Feed Status: UP
Listen in your browser - HTML5 player(in browser, HTML5)
Click here to listen with your own player(launches your MP3 player)

LSZH 240650Z VRB01KT 9999 BKN010 00/M02 Q1032 TEMPO BKN009

LSZH Flight Activity (Flightaware)

Listeners: 0 out of 1253 total

Zurich Radar (Below FL240 North): 136.155

LSZH Tower (Archives)
Zurich, Switzerland

Feed Status: UP
Listen in your browser - HTML5 player(in browser, HTML5)
Click here to listen with your own player(launches your MP3 player)

LSZH 240650Z VRB01KT 9999 BKN010 00/M02 Q1032 TEMPO BKN009

LSZH Flight Activity (Flightaware)

Listeners: 8 out of 1253 total

Zurich Tower: 118.100

LSZH Tower (14/32) (Archives)
Zurich, Switzerland

Feed Status: UP
Listen in your browser - HTML5 player(in browser, HTML5)
Click here to listen with your own player(launches your MP3 player)

LSZH 240650Z VRB01KT 9999 BKN010 00/M02 Q1032 TEMPO BKN009

LSZH Flight Activity (Flightaware)

Listeners: 0 out of 1253 total

Zurich Tower (Rwy 14 App/32 Takeoff): 120.225

LSZH Twr/Gnd (backup) (Archives)
Zurich, Switzerland

Feed Status: UP
Listen in your browser - HTML5 player(in browser, HTML5)
Click here to listen with your own player(launches your MP3 player)

LSZH 240650Z VRB01KT 9999 BKN010 00/M02 Q1032 TEMPO BKN009

LSZH Flight Activity (Flightaware)

Listeners: 0 out of 1253 total

Zurich Twr/Gnd (backup): 119.700

LSZL Tower (Archives)
Locarno, Switzerland

Feed Status: UP
Listen in your browser - HTML5 player(in browser, HTML5)
Click here to listen with your own player(launches your MP3 player)

LSZL 240650Z VRB02KT 6000 NSC M04/M04 Q1030 RMK WHT

LSZL Flight Activity (Flightaware)

Listeners: 2 out of 1253 total


LSZN CTAF (Archives)
Zurich, Switzerland

Feed Status: UP
Listen in your browser - HTML5 player(in browser, HTML5)
Click here to listen with your own player(launches your MP3 player)

LSZN Flight Activity (Flightaware)

Listeners: 0 out of 1253 total

Hausen am Albis CTAF: 130.755

LSZR Tower (Archives)
Altenrhein, Switzerland

Feed Status: UP
Listen in your browser - HTML5 player(in browser, HTML5)
Click here to listen with your own player(launches your MP3 player)

LSZR 240650Z 11002KT 9999 OVC011 M01/M01 Q1032 RMK C

LSZR Flight Activity (Flightaware)

Listeners: 0 out of 1253 total

Altenrhein Tower: 135.425

LSZW CTAF
Thun, Switzerland

Feed Status: DOWN
Offline since: 2021-12-19 17:49:39 UTC

Thun CTAF/Info: 123.250

LTBA Gnd/Twr/App (Archives)
Istanbul, Turkey

Feed Status: UP
Listen in your browser - HTML5 player(in browser, HTML5)
Click here to listen with your own player(launches your MP3 player)

LTBA 240650Z 33009KT 0750 R05/0900N R23/0900D SHSN FEW008 BKN024 BKN070 M01/M02 Q1024 NOSIG

LTBA Flight Activity (Flightaware)

Listeners: 1 out of 1253 total

Istanbul Approach: 126.425
Istanbul Approach: 133.075
Istanbul Tower: 118.100
Istanbul Tower: 118.375

LTFJ Del/Gnd/Twr (Archives)
Istanbul, Turkey

Feed Status: UP
Listen in your browser - HTML5 player(in browser, HTML5)
Click here to listen with your own player(launches your MP3 player)

LTFJ 240650Z 32004KT 260V030 4000 -SHSN SCT012 BKN028 M00/M02 Q1023 TEMPO 0900 SHSN

LTFJ Flight Activity (Flightaware)

Listeners: 16 out of 1253 total

Pegasus Dispatch: 131.750

LTFM App/Dep (Archives)
Istanbul, Turkey

Feed Status: UP
Listen in your browser - HTML5 player(in browser, HTML5)
Click here to listen with your own player(launches your MP3 player)

LTFM 240650Z 36021KT 9999 FEW009 FEW018TCU BKN022 M00/M02 Q1024 RESHSN NOSIG

LTFM Flight Activity (Flightaware)

Listeners: 1 out of 1253 total

Yesilkoy Approach: 130.300
Yesilkoy Approach: 118.950
Yesilkoy Radar: 132.475
Yesilkoy Radar: 132.050
Yesilkoy Radar: 131.125
Yesilkoy Radar: 132.325

LTFM Gnd/Twr (Archives)
Istanbul, Turkey

Feed Status: UP
Listen in your browser - HTML5 player(in browser, HTML5)
Click here to listen with your own player(launches your MP3 player)

LTFM 240650Z 36021KT 9999 FEW009 FEW018TCU BKN022 M00/M02 Q1024 RESHSN NOSIG

LTFM Flight Activity (Flightaware)

Listeners: 3 out of 1253 total

Istanbul Ground : 122.600
Istanbul Ground: 124.425
Istanbul Tower: 118.075
Istanbul Tower: 122.700
Istanbul Tower: 127.500

LUKK ACC #1 (Archives)
Chisinau, Moldova

Feed Status: UP
Listen in your browser - HTML5 player(in browser, HTML5)
Click here to listen with your own player(launches your MP3 player)

LUKK 240630Z 35014KT 9999 SCT023 M04/M07 Q1029 NOSIG

LUKK Flight Activity (Flightaware)

Listeners: 0 out of 1253 total

Chisinau ACC: 130.975

LUKK ACC #2 (Archives)
Chisinau, Moldova

Feed Status: UP
Listen in your browser - HTML5 player(in browser, HTML5)
Click here to listen with your own player(launches your MP3 player)

LUKK 240630Z 35014KT 9999 SCT023 M04/M07 Q1029 NOSIG

LUKK Flight Activity (Flightaware)

Listeners: 0 out of 1253 total

Chisinau ACC: 128.975

LUKK Air to Air (Archives)
Chisinau, Moldova

Feed Status: UP
Listen in your browser - HTML5 player(in browser, HTML5)
Click here to listen with your own player(launches your MP3 player)

LUKK 240630Z 35014KT 9999 SCT023 M04/M07 Q1029 NOSIG

LUKK Flight Activity (Flightaware)

Listeners: 0 out of 1253 total

Chisinau Air to Air: 123.450

LUKK Alternate (Archives)
Chisinau, Moldova

Feed Status: UP
Listen in your browser - HTML5 player(in browser, HTML5)
Click here to listen with your own player(launches your MP3 player)

LUKK 240630Z 35014KT 9999 SCT023 M04/M07 Q1029 NOSIG

LUKK Flight Activity (Flightaware)

Listeners: 0 out of 1253 total

Chisinau Alternate: 129.725

LUKK Approach #1 (Archives)
Chisinau, Moldova

Feed Status: UP
Listen in your browser - HTML5 player(in browser, HTML5)
Click here to listen with your own player(launches your MP3 player)

LUKK 240630Z 35014KT 9999 SCT023 M04/M07 Q1029 NOSIG

LUKK Flight Activity (Flightaware)

Listeners: 0 out of 1253 total

Chisinau Approach: 133.300

LUKK Approach #2 (Archives)
Chisinau, Moldova

Feed Status: UP
Listen in your browser - HTML5 player(in browser, HTML5)
Click here to listen with your own player(launches your MP3 player)

LUKK 240630Z 35014KT 9999 SCT023 M04/M07 Q1029 NOSIG

LUKK Flight Activity (Flightaware)

Listeners: 0 out of 1253 total

Chisinau Approach: 133.300

LUKK Emergency/Guard (Archives)
Chisinau, Moldova

Feed Status: UP
Listen in your browser - HTML5 player(in browser, HTML5)
Click here to listen with your own player(launches your MP3 player)

LUKK 240630Z 35014KT 9999 SCT023 M04/M07 Q1029 NOSIG

LUKK Flight Activity (Flightaware)

Listeners: 0 out of 1253 total

Emergency/Guard: 121.500

LUKK Ground #2 (Archives)
Chisinau, Moldova

Feed Status: UP
Listen in your browser - HTML5 player(in browser, HTML5)
Click here to listen with your own player(launches your MP3 player)

LUKK 240630Z 35014KT 9999 SCT023 M04/M07 Q1029 NOSIG

LUKK Flight Activity (Flightaware)

Listeners: 0 out of 1253 total

Chisinau Ground: 121.800

LUKK Handling (Archives)
Chisinau, Moldova

Feed Status: UP
Listen in your browser - HTML5 player(in browser, HTML5)
Click here to listen with your own player(launches your MP3 player)

LUKK 240630Z 35014KT 9999 SCT023 M04/M07 Q1029 NOSIG

LUKK Flight Activity (Flightaware)

Listeners: 0 out of 1253 total

Chisinau Handling: 131.700

LUKK Tower #2 (Archives)
Chisinau, Moldova

Feed Status: UP
Listen in your browser - HTML5 player(in browser, HTML5)
Click here to listen with your own player(launches your MP3 player)

LUKK 240630Z 35014KT 9999 SCT023 M04/M07 Q1029 NOSIG

LUKK Flight Activity (Flightaware)

Listeners: 0 out of 1253 total

Chisinau Tower: 118.100

LWSK ACC (Lower) (Archives)
Petrovec, North Macedonia, Republic of

Feed Status: UP
Listen in your browser - HTML5 player(in browser, HTML5)
Click here to listen with your own player(launches your MP3 player)

LWSK 240700Z VRB01KT 9999 SCT050 M03/M09 Q1028 NOSIG

LWSK Flight Activity (Flightaware)

Listeners: 0 out of 1253 total

Skopje Control (Lower): 119.375

LWSK ACC (Upper) (Archives)
Petrovec, North Macedonia, Republic of

Feed Status: UP
Listen in your browser - HTML5 player(in browser, HTML5)
Click here to listen with your own player(launches your MP3 player)

LWSK 240700Z VRB01KT 9999 SCT050 M03/M09 Q1028 NOSIG

LWSK Flight Activity (Flightaware)

Listeners: 0 out of 1253 total

Skopje Control (Upper): 120.015

LWSK Approach (Archives)
Petrovec, North Macedonia, Republic of

Feed Status: UP
Listen in your browser - HTML5 player(in browser, HTML5)
Click here to listen with your own player(launches your MP3 player)

LWSK 240700Z VRB01KT 9999 SCT050 M03/M09 Q1028 NOSIG

LWSK Flight Activity (Flightaware)

Listeners: 0 out of 1253 total

Skopje Approach/Departure: 120.300

LWSK ATIS (Archives)
Petrovec, North Macedonia, Republic of

Feed Status: UP
Listen in your browser - HTML5 player(in browser, HTML5)
Click here to listen with your own player(launches your MP3 player)

LWSK 240700Z VRB01KT 9999 SCT050 M03/M09 Q1028 NOSIG

LWSK Flight Activity (Flightaware)

Listeners: 0 out of 1253 total

Skopje ATIS: 130.125

LWSK Tower (Archives)
Petrovec, North Macedonia, Republic of

Feed Status: UP
Listen in your browser - HTML5 player(in browser, HTML5)
Click here to listen with your own player(launches your MP3 player)

LWSK 240700Z VRB01KT 9999 SCT050 M03/M09 Q1028 NOSIG

LWSK Flight Activity (Flightaware)

Listeners: 0 out of 1253 total

Skopje Tower: 118.500

LYNI Twr/App (Archives)
Nis, Serbia

Feed Status: UP
Listen in your browser - HTML5 player(in browser, HTML5)
Click here to listen with your own player(launches your MP3 player)

LYNI 240630Z 34014KT 9999 -SN FEW010 BKN017 BKN023 M05/M07 Q1030 NOSIG

LYNI Flight Activity (Flightaware)

Listeners: 0 out of 1253 total

Nis Approach: 119.525
Nis Approach/Tower (Alternate): 136.075
Nis Tower: 118.950

LZKZ Gnd/Twr/App (Archives)
Kosice, Slovakia

Feed Status: UP
Listen in your browser - HTML5 player(in browser, HTML5)
Click here to listen with your own player(launches your MP3 player)

LZKZ 240630Z 05005KT CAVOK M06/M11 Q1034 NOSIG

LZKZ Flight Activity (Flightaware)

Listeners: 1 out of 1253 total

Kosice Approach: 129.350
Kosice Approach (backup): 119.850
Kosice Ground: 121.700
Kosice Handling: 131.850
Kosice Tower: 120.400

LZNI CTAF (Archives)
Nitra, Slovakia

Feed Status: UP
Listen in your browser - HTML5 player(in browser, HTML5)
Click here to listen with your own player(launches your MP3 player)

LZNI Flight Activity (Flightaware)

Listeners: 0 out of 1253 total

Nitra Traffic Radio: 123.405

LZPE CTAF/UNICOM (Archives)
Prievidza, Slovakia

Feed Status: UP
Listen in your browser - HTML5 player(in browser, HTML5)
Click here to listen with your own player(launches your MP3 player)

LZPE Flight Activity (Flightaware)

Listeners: 0 out of 1253 total

Prievidza CTAF/UNICOM: 123.055

LZPP Ground/Tower (Archives)
Piestany, Slovakia

Feed Status: UP
Listen in your browser - HTML5 player(in browser, HTML5)
Click here to listen with your own player(launches your MP3 player)

LZPP 240630Z VRB02KT CAVOK M07/M08 Q1034

LZPP Flight Activity (Flightaware)

Listeners: 0 out of 1253 total

Piestany Ground: 121.700
Piestany Tower: 118.575

LZPT CTAF
Partizanske, Slovakia

Feed Status: DOWN
Offline since: 2022-01-07 11:48:23 UTC

Male Bielice CTAF: 123.500

UKKM Tower (Archives)
Gostomel, Ukraine

Feed Status: UP
Listen in your browser - HTML5 player(in browser, HTML5)
Click here to listen with your own player(launches your MP3 player)

UKKM 240630Z AUTO 34003MPS 9999 -SN ///005/// M09/M10 Q1033

UKKM Flight Activity (Flightaware)

Listeners: 0 out of 1253 total

Antonov Tower: 120.550

URMT Twr/App/Control (Archives)
Stavropol, Russia

Feed Status: UP
Listen in your browser - HTML5 player(in browser, HTML5)
Click here to listen with your own player(launches your MP3 player)

URMT 240630Z 12003MPS 0100 R07/M0200N -FZDZ FZFG VV002 M01/M01 Q1013 R07/250055 NOSIG RMK QBB060 OBST OBSC QFE720

URMT Flight Activity (Flightaware)

Listeners: 0 out of 1253 total

Stavropol Approach: 120.300
Stavropol Control: 118.250
Stavropol Tower: 120.900

URSS Gnd/Twr/App (Archives)
Sochi, Russia

Feed Status: UP
Listen in your browser - HTML5 player(in browser, HTML5)
Click here to listen with your own player(launches your MP3 player)

URSS 240630Z 18004MPS 9999 SCT030CB BKN080 06/03 Q1015 WS ALL RWY R06/220258 R02/220355 NOSIG RMK R02/17004MPS MT OBSC QFE760

URSS Flight Activity (Flightaware)

Listeners: 6 out of 1253 total

Sochi Approach: 118.300
Sochi Approach: 119.700
Sochi District (Small Aircraft): 118.500
Sochi Start: 121.200
Sochi Taxi: 119.000
Sochi Tower: 124.600

USDD Gnd/Twr/App/Control (Archives)
Salekhard, Russia

Feed Status: UP
Listen in your browser - HTML5 player(in browser, HTML5)
Click here to listen with your own player(launches your MP3 player)


USDD Flight Activity (Flightaware)

Listeners: 1 out of 1253 total

Salekhard Control: 132.300
Salekhard Ground: 118.800
Salekhard Info: 125.200
Salekhard Krug: 120.800
Salekhard Tower: 118.600
Salekhard Transit: 131.700

UUEE Twr/App/Radar (Archives)
Moscow, Russia

Feed Status: UP
Listen in your browser - HTML5 player(in browser, HTML5)
Click here to listen with your own player(launches your MP3 player)

UUEE 240630Z 27003MPS 7000 1100SW R06R/1100D R06C/1400D -SN BR OVC004 M08/M09 Q1034 RESN R06R/520235 R06C/520226 R06L/550235 TEMPO 0700 FZFG OVC003

UUEE Flight Activity (Flightaware)

Listeners: 4 out of 1253 total

Sheremetyevo Radar: 118.100
Sheremetyevo Radar/Departure: 126.600
Sheremetyevo Tower: 131.500
Sheremetyevo Tower (Rwy 24R/06L): 118.700